Wetterdaten: Mittwoch, 06.07.2016
Datum Zeit Temp. Aussen Temp. o. S. +5cm Feuchte Auss BlattFeu 1 Luftdruck Regen Sonnenschein Regendauer Solar Windben Empfang
06.07.2016 00:00 13,3 C 11,7 C 10,6 C 84 % 0 lf 1018,1 hPa 0,0 l/m 0 min 0 min 0 W/m 6,3 km/h (2 Bft) 95,65 %
06.07.2016 00:02 13,2 C 12,2 C 10,6 C 85 % 0 lf 1018,1 hPa 0,0 l/m 0 min 0 min 2 W/m 6,3 km/h (2 Bft) 96,88 %
06.07.2016 00:06 13,2 C 11,7 C 10,6 C 85 % 0 lf 1018,2 hPa 0,0 l/m 0 min 0 min 5 W/m 8,4 km/h (2 Bft) 95,74 %
06.07.2016 00:08 13,2 C 11,7 C 10,6 C 85 % 0 lf 1018,1 hPa 0,0 l/m 0 min 0 min 5 W/m 6,3 km/h (2 Bft) 100,00 %
06.07.2016 00:10 13,1 C 11,7 C 10,6 C 86 % 0 lf 1018,1 hPa 0,0 l/m 0 min 0 min 5 W/m 8,4 km/h (2 Bft) 97,87 %
06.07.2016 00:12 13,1 C 11,7 C 10,6 C 86 % 0 lf 1018,1 hPa 0,0 l/m 0 min 0 min 5 W/m 6,3 km/h (2 Bft) 95,65 %
06.07.2016 00:14 13,1 C 11,7 C 10,6 C 86 % 0 lf 1018,2 hPa 0,0 l/m 0 min 0 min 5 W/m 6,3 km/h (2 Bft) 100,00 %
06.07.2016 00:16 13,1 C 11,7 C 10,6 C 86 % 0 lf 1018,1 hPa 0,0 l/m 0 min 0 min 5 W/m 8,4 km/h (2 Bft) 100,00 %
06.07.2016 00:18 13,0 C 11,7 C 10,6 C 86 % 0 lf 1018,1 hPa 0,0 l/m 0 min 0 min 5 W/m 4,2 km/h (1 Bft) 97,87 %
06.07.2016 00:20 13,0 C 11,7 C 10,6 C 86 % 0 lf 1018,2 hPa 0,0 l/m 0 min 0 min 5 W/m 6,3 km/h (2 Bft) 100,00 %
06.07.2016 00:22 12,9 C 11,7 C 10,6 C 86 % 0 lf 1018,1 hPa 0,0 l/m 0 min 0 min 5 W/m 6,3 km/h (2 Bft) 100,00 %
06.07.2016 00:24 12,9 C 11,7 C 10,6 C 86 % 0 lf 1018,1 hPa 0,0 l/m 0 min 0 min 5 W/m 8,4 km/h (2 Bft) 97,83 %
06.07.2016 00:26 12,9 C 11,7 C 10,0 C 86 % 0 lf 1018,2 hPa 0,0 l/m 0 min 0 min 3 W/m 4,2 km/h (1 Bft) 97,87 %
06.07.2016 00:28 12,8 C 11,7 C 10,0 C 87 % 0 lf 1018,2 hPa 0,0 l/m 0 min 0 min 0 W/m 6,3 km/h (2 Bft) 100,00 %
06.07.2016 00:30 12,8 C 11,7 C 10,0 C 86 % 0 lf 1018,2 hPa 0,0 l/m 0 min 0 min 0 W/m 6,3 km/h (2 Bft) 100,00 %
06.07.2016 00:32 12,8 C 11,7 C 10,0 C 86 % 0 lf 1018,3 hPa 0,0 l/m 0 min 0 min 0 W/m 8,4 km/h (2 Bft) 100,00 %
06.07.2016 00:34 12,7 C 11,7 C 10,0 C 87 % 0 lf 1018,2 hPa 0,0 l/m 0 min 0 min 0 W/m 8,4 km/h (2 Bft) 95,74 %
06.07.2016 00:36 12,7 C 11,7 C 10,0 C 87 % 0 lf 1018,2 hPa 0,0 l/m 0 min 0 min 0 W/m 6,3 km/h (2 Bft) 100,00 %
06.07.2016 00:38 12,7 C 11,7 C 10,0 C 87 % 0 lf 1018,3 hPa 0,0 l/m 0 min 0 min 0 W/m 10,5 km/h (2 Bft) 100,00 %
06.07.2016 00:40 12,7 C 11,7 C 10,0 C 87 % 0 lf 1018,2 hPa 0,0 l/m 0 min 0 min 0 W/m 8,4 km/h (2 Bft) 95,74 %
06.07.2016 00:42 12,7 C 11,7 C 10,0 C 87 % 0 lf 1018,4 hPa 0,0 l/m 0 min 0 min 0 W/m 8,4 km/h (2 Bft) 100,00 %
06.07.2016 00:44 12,6 C 11,7 C 10,6 C 88 % 0 lf 1018,3 hPa 0,0 l/m 0 min 0 min 0 W/m 8,4 km/h (2 Bft) 100,00 %
06.07.2016 00:46 12,6 C 11,7 C 10,6 C 87 % 0 lf 1018,3 hPa 0,0 l/m 0 min 0 min 0 W/m 8,4 km/h (2 Bft) 97,87 %
06.07.2016 00:48 12,6 C 11,7 C 10,0 C 88 % 0 lf 1018,4 hPa 0,0 l/m 0 min 0 min 0 W/m 6,3 km/h (2 Bft) 97,83 %
06.07.2016 00:50 12,5 C 11,7 C 10,0 C 88 % 0 lf 1018,4 hPa 0,0 l/m 0 min 0 min 0 W/m 8,4 km/h (2 Bft) 93,62 %
06.07.2016 00:52 12,5 C 11,7 C 10,0 C 88 % 0 lf 1018,4 hPa 0,0 l/m 0 min 0 min 0 W/m 6,3 km/h (2 Bft) 93,62 %
06.07.2016 00:54 12,5 C 11,7 C 10,0 C 88 % 0 lf 1018,4 hPa 0,0 l/m 0 min 0 min 0 W/m 8,4 km/h (2 Bft) 100,00 %
06.07.2016 00:56 12,4 C 11,7 C 10,0 C 88 % 0 lf 1018,4 hPa 0,0 l/m 0 min 0 min 4 W/m 12,6 km/h (3 Bft) 100,00 %
06.07.2016 00:58 12,4 C 11,7 C 10,0 C 88 % 0 lf 1018,3 hPa 0,0 l/m 0 min 0 min 0 W/m 10,5 km/h (2 Bft) 100,00 %
06.07.2016 01:00 12,4 C 11,7 C 10,6 C 89 % 0 lf 1018,3 hPa 0,0 l/m 0 min 0 min 0 W/m 10,5 km/h (2 Bft) 100,00 %
06.07.2016 01:02 12,4 C 11,1 C 10,0 C 89 % 0 lf 1018,3 hPa 0,0 l/m 0 min 0 min 0 W/m 6,3 km/h (2 Bft) 100,00 %
06.07.2016 01:04 12,3 C 11,1 C 10,0 C 89 % 0 lf 1018,4 hPa 0,0 l/m 0 min 0 min 0 W/m 8,4 km/h (2 Bft) 100,00 %
06.07.2016 01:06 12,3 C 11,1 C 10,0 C 89 % 0 lf 1018,3 hPa 0,0 l/m 0 min 0 min 0 W/m 6,3 km/h (2 Bft) 100,00 %
06.07.2016 01:08 12,3 C 11,7 C 10,0 C 89 % 0 lf 1018,4 hPa 0,0 l/m 0 min 0 min 0 W/m 6,3 km/h (2 Bft) 95,74 %
06.07.2016 01:10 12,3 C 11,7 C 10,0 C 89 % 0 lf 1018,3 hPa 0,0 l/m 0 min 0 min 0 W/m 6,3 km/h (2 Bft) 100,00 %
06.07.2016 01:12 12,2 C 11,7 C 10,0 C 89 % 0 lf 1018,4 hPa 0,0 l/m 0 min 0 min 0 W/m 8,4 km/h (2 Bft) 97,87 %
06.07.2016 01:14 12,2 C 11,7 C 10,0 C 89 % 0 lf 1018,4 hPa 0,0 l/m 0 min 0 min 0 W/m 6,3 km/h (2 Bft) 97,87 %
06.07.2016 01:16 12,2 C 11,7 C 10,0 C 89 % 0 lf 1018,4 hPa 0,0 l/m 0 min 0 min 0 W/m 10,5 km/h (2 Bft) 97,87 %
06.07.2016 01:18 12,2 C 11,7 C 10,0 C 89 % 0 lf 1018,4 hPa 0,0 l/m 0 min 0 min 0 W/m 10,5 km/h (2 Bft) 95,74 %
06.07.2016 01:20 12,2 C 11,7 C 10,0 C 89 % 0 lf 1018,4 hPa 0,0 l/m 0 min 0 min 0 W/m 10,5 km/h (2 Bft) 95,74 %
06.07.2016 01:22 12,2 C 11,7 C 10,0 C 90 % 0 lf 1018,5 hPa 0,0 l/m 0 min 0 min 0 W/m 8,4 km/h (2 Bft) 91,30 %
06.07.2016 01:24 12,1 C 11,7 C 10,0 C 90 % 0 lf 1018,5 hPa 0,0 l/m 0 min 0 min 0 W/m 6,3 km/h (2 Bft) 93,62 %
06.07.2016 01:26 12,1 C 11,1 C 10,0 C 90 % 0 lf 1018,4 hPa 0,0 l/m 0 min 0 min 0 W/m 8,4 km/h (2 Bft) 95,74 %
06.07.2016 01:28 12,1 C 11,1 C 10,0 C 89 % 0 lf 1018,5 hPa 0,0 l/m 0 min 0 min 0 W/m 6,3 km/h (2 Bft) 93,62 %
06.07.2016 01:30 12,1 C 11,1 C 10,0 C 90 % 0 lf 1018,5 hPa 0,0 l/m 0 min 0 min 0 W/m 6,3 km/h (2 Bft) 95,74 %
06.07.2016 01:32 12,1 C 11,1 C 10,0 C 90 % 0 lf 1018,5 hPa 0,0 l/m 0 min 0 min 0 W/m 6,3 km/h (2 Bft) 95,74 %
06.07.2016 01:34 12,1 C 11,1 C 10,0 C 90 % 0 lf 1018,5 hPa 0,0 l/m 0 min 0 min 0 W/m 6,3 km/h (2 Bft) 93,48 %
06.07.2016 01:36 12,0 C 11,1 C 10,0 C 90 % 0 lf 1018,5 hPa 0,0 l/m 0 min 0 min 0 W/m 4,2 km/h (1 Bft) 91,49 %
06.07.2016 01:38 12,0 C 11,1 C 10,0 C 90 % 0 lf 1018,5 hPa 0,0 l/m 0 min 0 min 0 W/m 8,4 km/h (2 Bft) 95,74 %
06.07.2016 01:40 12,0 C 11,1 C 10,0 C 90 % 0 lf 1018,6 hPa 0,0 l/m 0 min 0 min 0 W/m 8,4 km/h (2 Bft) 93,62 %
06.07.2016 01:42 11,9 C 11,1 C 10,0 C 90 % 0 lf 1018,6 hPa 0,0 l/m 0 min 0 min 0 W/m 6,3 km/h (2 Bft) 89,36 %
06.07.2016 01:44 11,9 C 11,1 C 10,0 C 90 % 0 lf 1018,5 hPa 0,0 l/m 0 min 0 min 0 W/m 6,3 km/h (2 Bft) 93,62 %
06.07.2016 01:46 11,9 C 11,1 C 10,0 C 90 % 0 lf 1018,5 hPa 0,0 l/m 0 min 0 min 0 W/m 4,2 km/h (1 Bft) 91,30 %
06.07.2016 01:48 11,9 C 11,1 C 10,0 C 90 % 0 lf 1018,5 hPa 0,0 l/m 0 min 0 min 0 W/m 4,2 km/h (1 Bft) 93,62 %
06.07.2016 01:50 11,9 C 11,1 C 10,0 C 90 % 0 lf 1018,5 hPa 0,0 l/m 0 min 0 min 0 W/m 4,2 km/h (1 Bft) 93,62 %
06.07.2016 01:52 11,9 C 11,1 C 9,4 C 90 % 1 lf 1018,5 hPa 0,0 l/m 0 min 0 min 0 W/m 8,4 km/h (2 Bft) 93,62 %
06.07.2016 01:54 11,8 C 11,1 C 9,4 C 90 % 1 lf 1018,5 hPa 0,0 l/m 0 min 0 min 0 W/m 12,6 km/h (3 Bft) 91,49 %
06.07.2016 01:56 11,8 C 11,1 C 10,0 C 90 % 1 lf 1018,5 hPa 0,0 l/m 0 min 0 min 0 W/m 10,5 km/h (2 Bft) 89,36 %
06.07.2016 01:58 11,8 C 11,1 C 9,4 C 90 % 1 lf 1018,5 hPa 0,0 l/m 0 min 0 min 0 W/m 2,1 km/h (1 Bft) 93,48 %
06.07.2016 02:00 11,8 C 11,1 C 10,0 C 90 % 1 lf 1018,5 hPa 0,0 l/m 0 min 0 min 0 W/m 14,6 km/h (3 Bft) 91,49 %
06.07.2016 02:02 11,8 C 11,1 C 9,4 C 90 % 1 lf 1018,6 hPa 0,0 l/m 0 min 0 min 0 W/m 4,2 km/h (1 Bft) 91,49 %
06.07.2016 02:04 11,8 C 11,1 C 9,4 C 90 % 1 lf 1018,5 hPa 0,0 l/m 0 min 0 min 0 W/m 6,3 km/h (2 Bft) 89,36 %
06.07.2016 02:06 11,8 C 11,1 C 9,4 C 91 % 1 lf 1018,5 hPa 0,0 l/m 0 min 0 min 0 W/m 6,3 km/h (2 Bft) 91,49 %
06.07.2016 02:08 11,7 C 11,1 C 9,4 C 91 % 1 lf 1018,5 hPa 0,0 l/m 0 min 0 min 0 W/m 10,5 km/h (2 Bft) 93,62 %
06.07.2016 02:10 11,7 C 11,1 C 9,4 C 91 % 1 lf 1018,6 hPa 0,0 l/m 0 min 0 min 0 W/m 10,5 km/h (2 Bft) 95,65 %
06.07.2016 02:12 11,7 C 11,1 C 9,4 C 91 % 1 lf 1018,6 hPa 0,0 l/m 0 min 0 min 0 W/m 6,3 km/h (2 Bft) 91,49 %
06.07.2016 02:14 11,7 C 11,1 C 10,0 C 91 % 1 lf 1018,6 hPa 0,0 l/m 0 min 0 min 0 W/m 8,4 km/h (2 Bft) 91,49 %
06.07.2016 02:16 11,7 C 11,1 C 10,0 C 91 % 1 lf 1018,5 hPa 0,0 l/m 0 min 0 min 0 W/m 8,4 km/h (2 Bft) 89,36 %
06.07.2016 02:18 11,7 C 11,1 C 10,0 C 91 % 1 lf 1018,5 hPa 0,0 l/m 0 min 0 min 0 W/m 6,3 km/h (2 Bft) 93,62 %
06.07.2016 02:20 11,7 C 11,1 C 9,4 C 91 % 1 lf 1018,5 hPa 0,0 l/m 0 min 0 min 0 W/m 2,1 km/h (1 Bft) 93,48 %
06.07.2016 02:22 11,7 C 10,6 C 9,4 C 91 % 1 lf 1018,5 hPa 0,0 l/m 0 min 0 min 0 W/m 0,0 km/h (0 Bft) 93,62 %
06.07.2016 02:24 11,6 C 11,1 C 9,4 C 91 % 1 lf 1018,5 hPa 0,0 l/m 0 min 0 min 0 W/m 4,2 km/h (1 Bft) 93,62 %
06.07.2016 02:26 11,6 C 11,1 C 9,4 C 91 % 1 lf 1018,6 hPa 0,0 l/m 0 min 0 min 0 W/m 8,4 km/h (2 Bft) 93,62 %
06.07.2016 02:28 11,6 C 11,1 C 9,4 C 91 % 1 lf 1018,5 hPa 0,0 l/m 0 min 0 min 0 W/m 6,3 km/h (2 Bft) 97,87 %
06.07.2016 02:30 11,6 C 10,6 C 9,4 C 91 % 1 lf 1018,5 hPa 0,0 l/m 0 min 0 min 0 W/m 4,2 km/h (1 Bft) 95,74 %
06.07.2016 02:32 11,6 C 10,6 C 9,4 C 91 % 1 lf 1018,5 hPa 0,0 l/m 0 min 0 min 0 W/m 4,2 km/h (1 Bft) 95,74 %
06.07.2016 02:34 11,6 C 10,6 C 9,4 C 91 % 1 lf 1018,5 hPa 0,0 l/m 0 min 0 min 0 W/m 4,2 km/h (1 Bft) 100,00 %
06.07.2016 02:36 11,6 C 10,6 C 9,4 C 91 % 1 lf 1018,5 hPa 0,0 l/m 0 min 0 min 0 W/m 4,2 km/h (1 Bft) 97,87 %
06.07.2016 02:38 11,5 C 10,6 C 9,4 C 92 % 1 lf 1018,5 hPa 0,0 l/m 0 min 0 min 0 W/m 4,2 km/h (1 Bft) 95,74 %
06.07.2016 02:40 11,5 C 10,0 C 9,4 C 92 % 1 lf 1018,5 hPa 0,0 l/m 0 min 0 min 0 W/m 4,2 km/h (1 Bft) 97,87 %
06.07.2016 02:42 11,5 C 10,0 C 9,4 C 92 % 1 lf 1018,5 hPa 0,0 l/m 0 min 0 min 0 W/m 2,1 km/h (1 Bft) 97,87 %
06.07.2016 02:44 11,4 C 10,0 C 9,4 C 92 % 1 lf 1018,5 hPa 0,0 l/m 0 min 0 min 4 W/m 2,1 km/h (1 Bft) 100,00 %
06.07.2016 02:46 11,4 C 10,0 C 9,4 C 92 % 1 lf 1018,5 hPa 0,0 l/m 0 min 0 min 0 W/m 2,1 km/h (1 Bft) 97,87 %
06.07.2016 02:48 11,4 C 10,0 C 9,4 C 92 % 1 lf 1018,5 hPa 0,0 l/m 0 min 0 min 0 W/m 4,2 km/h (1 Bft) 95,74 %
06.07.2016 02:50 11,4 C 10,0 C 8,9 C 92 % 2 lf 1018,5 hPa 0,0 l/m 0 min 0 min 1 W/m 2,1 km/h (1 Bft) 100,00 %
06.07.2016 02:52 11,4 C 10,0 C 8,9 C 92 % 2 lf 1018,5 hPa 0,0 l/m 0 min 0 min 5 W/m 0,0 km/h (0 Bft) 95,74 %
06.07.2016 02:54 11,3 C 10,0 C 8,9 C 92 % 2 lf 1018,4 hPa 0,0 l/m 0 min 0 min 5 W/m 0,0 km/h (0 Bft) 97,87 %
06.07.2016 02:56 11,3 C 10,0 C 8,9 C 92 % 2 lf 1018,4 hPa 0,0 l/m 0 min 0 min 5 W/m 4,2 km/h (1 Bft) 97,83 %
06.07.2016 02:58 11,3 C 10,0 C 8,9 C 92 % 2 lf 1018,4 hPa 0,0 l/m 0 min 0 min 5 W/m 4,2 km/h (1 Bft) 97,87 %
06.07.2016 03:00 11,3 C 10,0 C 8,9 C 92 % 2 lf 1018,4 hPa 0,0 l/m 0 min 0 min 5 W/m 4,2 km/h (1 Bft) 97,87 %
06.07.2016 03:02 11,3 C 10,0 C 8,9 C 91 % 2 lf 1018,4 hPa 0,0 l/m 0 min 0 min 5 W/m 0,0 km/h (0 Bft) 100,00 %
06.07.2016 03:04 11,2 C 10,0 C 8,9 C 91 % 2 lf 1018,4 hPa 0,0 l/m 0 min 0 min 5 W/m 0,0 km/h (0 Bft) 95,74 %
06.07.2016 03:06 11,2 C 10,0 C 8,9 C 91 % 2 lf 1018,4 hPa 0,0 l/m 0 min 0 min 5 W/m 6,3 km/h (2 Bft) 97,87 %
06.07.2016 03:08 11,2 C 10,6 C 8,9 C 91 % 2 lf 1018,5 hPa 0,0 l/m 0 min 0 min 5 W/m 4,2 km/h (1 Bft) 100,00 %
06.07.2016 03:10 11,2 C 10,6 C 8,9 C 91 % 3 lf 1018,4 hPa 0,0 l/m 0 min 0 min 5 W/m 2,1 km/h (1 Bft) 97,87 %
06.07.2016 03:12 11,2 C 10,0 C 8,9 C 92 % 3 lf 1018,4 hPa 0,0 l/m 0 min 0 min 5 W/m 4,2 km/h (1 Bft) 93,62 %
06.07.2016 03:14 11,1 C 10,0 C 8,9 C 92 % 3 lf 1018,4 hPa 0,0 l/m 0 min 0 min 4 W/m 4,2 km/h (1 Bft) 95,74 %
06.07.2016 03:16 11,1 C 10,0 C 8,9 C 92 % 3 lf 1018,4 hPa 0,0 l/m 0 min 0 min 4 W/m 4,2 km/h (1 Bft) 97,87 %
06.07.2016 03:18 11,1 C 10,0 C 8,9 C 92 % 3 lf 1018,4 hPa 0,0 l/m 0 min 0 min 4 W/m 4,2 km/h (1 Bft) 95,65 %
06.07.2016 03:20 11,1 C 10,0 C 8,9 C 92 % 3 lf 1018,4 hPa 0,0 l/m 0 min 0 min 1 W/m 4,2 km/h (1 Bft) 93,62 %
06.07.2016 03:22 11,1 C 10,0 C 8,9 C 92 % 3 lf 1018,4 hPa 0,0 l/m 0 min 0 min 3 W/m 2,1 km/h (1 Bft) 93,62 %
06.07.2016 03:24 11,0 C 10,0 C 8,9 C 92 % 3 lf 1018,4 hPa 0,0 l/m 0 min 0 min 2 W/m 4,2 km/h (1 Bft) 95,74 %
06.07.2016 03:26 11,0 C 9,4 C 8,9 C 92 % 3 lf 1018,5 hPa 0,0 l/m 0 min 0 min 0 W/m 2,1 km/h (1 Bft) 95,74 %
06.07.2016 03:28 11,0 C 9,4 C 8,9 C 92 % 3 lf 1018,4 hPa 0,0 l/m 0 min 0 min 0 W/m 4,2 km/h (1 Bft) 97,87 %
06.07.2016 03:30 10,9 C 9,4 C 8,9 C 92 % 3 lf 1018,5 hPa 0,0 l/m 0 min 0 min 0 W/m 2,1 km/h (1 Bft) 93,62 %
06.07.2016 03:32 10,9 C 9,4 C 8,9 C 92 % 4 lf 1018,6 hPa 0,0 l/m 0 min 0 min 0 W/m 4,2 km/h (1 Bft) 97,83 %
06.07.2016 03:34 10,9 C 10,0 C 8,9 C 92 % 4 lf 1018,6 hPa 0,0 l/m 0 min 0 min 0 W/m 6,3 km/h (2 Bft) 95,74 %
06.07.2016 03:36 10,9 C 10,0 C 8,9 C 92 % 4 lf 1018,6 hPa 0,0 l/m 0 min 0 min 0 W/m 6,3 km/h (2 Bft) 97,87 %
06.07.2016 03:38 10,9 C 10,0 C 8,9 C 92 % 4 lf 1018,6 hPa 0,0 l/m 0 min 0 min 1 W/m 6,3 km/h (2 Bft) 97,87 %
06.07.2016 03:40 10,9 C 10,0 C 8,9 C 92 % 4 lf 1018,6 hPa 0,0 l/m 0 min 0 min 1 W/m 8,4 km/h (2 Bft) 100,00 %
06.07.2016 03:42 10,9 C 10,0 C 8,9 C 92 % 4 lf 1018,6 hPa 0,0 l/m 0 min 0 min 2 W/m 8,4 km/h (2 Bft) 97,87 %
06.07.2016 03:44 10,8 C 10,0 C 8,9 C 92 % 4 lf 1018,6 hPa 0,0 l/m 0 min 0 min 0 W/m 10,5 km/h (2 Bft) 95,92 %
06.07.2016 03:46 10,8 C 10,0 C 8,9 C 92 % 4 lf 1018,6 hPa 0,0 l/m 0 min 0 min 2 W/m 4,2 km/h (1 Bft) 97,87 %
06.07.2016 03:48 10,8 C 10,0 C 8,9 C 92 % 5 lf 1018,6 hPa 0,0 l/m 0 min 0 min 0 W/m 4,2 km/h (1 Bft) 100,00 %
06.07.2016 03:50 10,8 C 10,0 C 8,9 C 92 % 5 lf 1018,6 hPa 0,0 l/m 0 min 0 min 2 W/m 4,2 km/h (1 Bft) 97,87 %
06.07.2016 03:52 10,8 C 10,0 C 8,9 C 93 % 5 lf 1018,6 hPa 0,0 l/m 0 min 0 min 1 W/m 6,3 km/h (2 Bft) 95,74 %
06.07.2016 03:54 10,8 C 10,0 C 8,9 C 93 % 5 lf 1018,7 hPa 0,0 l/m 0 min 0 min 0 W/m 6,3 km/h (2 Bft) 100,00 %
06.07.2016 03:56 10,8 C 10,0 C 8,9 C 93 % 5 lf 1018,6 hPa 0,0 l/m 0 min 0 min 0 W/m 6,3 km/h (2 Bft) 97,87 %
06.07.2016 03:58 10,8 C 10,0 C 8,9 C 93 % 6 lf 1018,6 hPa 0,0 l/m 0 min 0 min 0 W/m 6,3 km/h (2 Bft) 100,00 %
06.07.2016 04:00 10,8 C 10,0 C 8,9 C 93 % 6 lf 1018,6 hPa 0,0 l/m 0 min 0 min 0 W/m 6,3 km/h (2 Bft) 97,87 %
06.07.2016 04:02 10,8 C 10,0 C 8,9 C 93 % 6 lf 1018,6 hPa 0,0 l/m 0 min 0 min 0 W/m 4,2 km/h (1 Bft) 100,00 %
06.07.2016 04:04 10,8 C 10,0 C 8,9 C 93 % 6 lf 1018,6 hPa 0,0 l/m 0 min 0 min 0 W/m 4,2 km/h (1 Bft) 95,74 %
06.07.2016 04:06 10,8 C 10,0 C 8,9 C 93 % 7 lf 1018,6 hPa 0,0 l/m 0 min 0 min 0 W/m 6,3 km/h (2 Bft) 97,83 %
06.07.2016 04:08 10,8 C 10,0 C 8,9 C 93 % 7 lf 1018,6 hPa 0,0 l/m 0 min 0 min 0 W/m 6,3 km/h (2 Bft) 100,00 %
06.07.2016 04:10 10,7 C 10,0 C 8,9 C 93 % 7 lf 1018,6 hPa 0,0 l/m 0 min 0 min 0 W/m 6,3 km/h (2 Bft) 100,00 %
06.07.2016 04:12 10,7 C 10,0 C 8,9 C 93 % 8 lf 1018,7 hPa 0,0 l/m 0 min 0 min 0 W/m 4,2 km/h (1 Bft) 100,00 %
06.07.2016 04:14 10,7 C 10,0 C 8,9 C 93 % 8 lf 1018,7 hPa 0,0 l/m 0 min 0 min 0 W/m 4,2 km/h (1 Bft) 97,87 %
06.07.2016 04:16 10,7 C 10,0 C 8,9 C 93 % 9 lf 1018,6 hPa 0,0 l/m 0 min 0 min 0 W/m 4,2 km/h (1 Bft) 100,00 %
06.07.2016 04:18 10,7 C 10,0 C 8,9 C 93 % 9 lf 1018,6 hPa 0,0 l/m 0 min 0 min 0 W/m 4,2 km/h (1 Bft) 97,87 %
06.07.2016 04:20 10,7 C 10,0 C 8,9 C 93 % 9 lf 1018,6 hPa 0,0 l/m 0 min 0 min 0 W/m 4,2 km/h (1 Bft) 97,87 %
06.07.2016 04:22 10,7 C 10,0 C 8,3 C 93 % 10 lf 1018,6 hPa 0,0 l/m 0 min 0 min 0 W/m 2,1 km/h (1 Bft) 95,74 %
06.07.2016 04:24 10,7 C 10,0 C 8,3 C 93 % 10 lf 1018,6 hPa 0,0 l/m 0 min 0 min 0 W/m 6,3 km/h (2 Bft) 97,87 %
06.07.2016 04:26 10,7 C 10,0 C 8,9 C 93 % 10 lf 1018,7 hPa 0,0 l/m 0 min 0 min 0 W/m 4,2 km/h (1 Bft) 97,87 %
06.07.2016 04:28 10,7 C 10,0 C 8,9 C 93 % 10 lf 1018,7 hPa 0,0 l/m 0 min 0 min 0 W/m 4,2 km/h (1 Bft) 95,65 %
06.07.2016 04:30 10,7 C 10,0 C 8,9 C 93 % 11 lf 1018,7 hPa 0,0 l/m 0 min 0 min 0 W/m 4,2 km/h (1 Bft) 95,74 %
06.07.2016 04:32 10,6 C 9,4 C 8,9 C 93 % 11 lf 1018,7 hPa 0,0 l/m 0 min 0 min 0 W/m 4,2 km/h (1 Bft) 97,87 %
06.07.2016 04:34 10,6 C 10,0 C 8,9 C 93 % 11 lf 1018,7 hPa 0,0 l/m 0 min 0 min 2 W/m 4,2 km/h (1 Bft) 97,87 %
06.07.2016 04:36 10,6 C 10,0 C 8,9 C 93 % 11 lf 1018,9 hPa 0,0 l/m 0 min 0 min 3 W/m 6,3 km/h (2 Bft) 95,74 %
06.07.2016 04:38 10,6 C 10,0 C 8,9 C 93 % 11 lf 1018,9 hPa 0,0 l/m 0 min 0 min 1 W/m 6,3 km/h (2 Bft) 95,74 %
06.07.2016 04:40 10,6 C 10,0 C 8,9 C 93 % 11 lf 1018,9 hPa 0,0 l/m 0 min 0 min 0 W/m 6,3 km/h (2 Bft) 97,83 %
06.07.2016 04:42 10,6 C 10,6 C 8,9 C 93 % 11 lf 1018,8 hPa 0,0 l/m 0 min 0 min 0 W/m 4,2 km/h (1 Bft) 95,74 %
06.07.2016 04:44 10,6 C 10,0 C 8,9 C 94 % 11 lf 1018,8 hPa 0,0 l/m 0 min 0 min 2 W/m 2,1 km/h (1 Bft) 93,62 %
06.07.2016 04:46 10,6 C 10,0 C 9,4 C 94 % 11 lf 1018,9 hPa 0,0 l/m 0 min 0 min 0 W/m 4,2 km/h (1 Bft) 95,74 %
06.07.2016 04:48 10,6 C 10,0 C 9,4 C 94 % 11 lf 1018,9 hPa 0,0 l/m 0 min 0 min 0 W/m 4,2 km/h (1 Bft) 93,62 %
06.07.2016 04:50 10,6 C 10,0 C 9,4 C 94 % 11 lf 1018,8 hPa 0,0 l/m 0 min 0 min 0 W/m 6,3 km/h (2 Bft) 93,62 %
06.07.2016 04:52 10,6 C 10,0 C 8,9 C 94 % 11 lf 1018,8 hPa 0,0 l/m 0 min 0 min 0 W/m 2,1 km/h (1 Bft) 93,48 %
06.07.2016 04:54 10,6 C 10,0 C 8,9 C 94 % 11 lf 1018,8 hPa 0,0 l/m 0 min 0 min 0 W/m 2,1 km/h (1 Bft) 95,74 %
06.07.2016 04:56 10,6 C 10,0 C 8,9 C 94 % 11 lf 1018,8 hPa 0,0 l/m 0 min 0 min 0 W/m 0,0 km/h (0 Bft) 97,87 %
06.07.2016 04:58 10,6 C 10,0 C 8,9 C 94 % 11 lf 1018,8 hPa 0,0 l/m 0 min 0 min 1 W/m 4,2 km/h (1 Bft) 93,62 %
06.07.2016 05:00 10,6 C 10,0 C 8,9 C 94 % 11 lf 1018,9 hPa 0,0 l/m 0 min 0 min 1 W/m 2,1 km/h (1 Bft) 93,62 %
06.07.2016 05:02 10,6 C 10,0 C 8,9 C 94 % 11 lf 1019,0 hPa 0,0 l/m 0 min 0 min 0 W/m 0,0 km/h (0 Bft) 93,62 %
06.07.2016 05:04 10,6 C 10,0 C 8,9 C 94 % 11 lf 1019,0 hPa 0,0 l/m 0 min 0 min 0 W/m 0,0 km/h (0 Bft) 95,65 %
06.07.2016 05:06 10,6 C 10,0 C 8,9 C 94 % 12 lf 1018,9 hPa 0,0 l/m 0 min 0 min 4 W/m 0,0 km/h (0 Bft) 93,62 %
06.07.2016 05:08 10,6 C 10,0 C 9,4 C 94 % 11 lf 1018,9 hPa 0,0 l/m 0 min 0 min 5 W/m 0,0 km/h (0 Bft) 95,74 %
06.07.2016 05:10 10,5 C 10,0 C 9,4 C 94 % 12 lf 1018,9 hPa 0,0 l/m 0 min 0 min 5 W/m 4,2 km/h (1 Bft) 91,49 %
06.07.2016 05:12 10,5 C 10,0 C 9,4 C 94 % 12 lf 1019,0 hPa 0,0 l/m 0 min 0 min 5 W/m 2,1 km/h (1 Bft) 95,74 %
06.07.2016 05:14 10,6 C 10,0 C 9,4 C 94 % 11 lf 1019,0 hPa 0,0 l/m 0 min 0 min 5 W/m 2,1 km/h (1 Bft) 93,62 %
06.07.2016 05:16 10,5 C 10,0 C 9,4 C 94 % 11 lf 1019,0 hPa 0,0 l/m 0 min 0 min 5 W/m 4,2 km/h (1 Bft) 95,65 %
06.07.2016 05:18 10,5 C 10,6 C 9,4 C 94 % 11 lf 1019,0 hPa 0,0 l/m 0 min 0 min 5 W/m 4,2 km/h (1 Bft) 91,49 %
06.07.2016 05:20 10,5 C 10,6 C 10,0 C 94 % 10 lf 1019,0 hPa 0,0 l/m 0 min 0 min 5 W/m 4,2 km/h (1 Bft) 95,74 %
06.07.2016 05:22 10,6 C 10,6 C 10,0 C 94 % 10 lf 1019,1 hPa 0,0 l/m 0 min 0 min 5 W/m 4,2 km/h (1 Bft) 91,49 %
06.07.2016 05:24 10,6 C 10,6 C 10,0 C 94 % 10 lf 1019,2 hPa 0,0 l/m 0 min 0 min 5 W/m 4,2 km/h (1 Bft) 95,74 %
06.07.2016 05:26 10,6 C 10,6 C 10,0 C 94 % 10 lf 1019,2 hPa 0,0 l/m 0 min 0 min 5 W/m 4,2 km/h (1 Bft) 93,48 %
06.07.2016 05:28 10,6 C 10,6 C 10,0 C 94 % 10 lf 1019,2 hPa 0,0 l/m 0 min 0 min 5 W/m 2,1 km/h (1 Bft) 95,74 %
06.07.2016 05:30 10,6 C 11,1 C 10,0 C 94 % 9 lf 1019,2 hPa 0,0 l/m 0 min 2 min 5 W/m 4,2 km/h (1 Bft) 97,87 %
06.07.2016 05:32 10,7 C 11,1 C 10,0 C 94 % 9 lf 1019,2 hPa 0,0 l/m 0 min 2 min 7 W/m 6,3 km/h (2 Bft) 95,74 %
06.07.2016 05:34 10,7 C 11,1 C 10,0 C 94 % 8 lf 1019,1 hPa 0,0 l/m 0 min 0 min 7 W/m 4,2 km/h (1 Bft) 97,87 %
06.07.2016 05:36 10,7 C 11,1 C 10,6 C 94 % 8 lf 1019,1 hPa 0,0 l/m 0 min 0 min 5 W/m 4,2 km/h (1 Bft) 93,62 %
06.07.2016 05:38 10,8 C 11,1 C 10,6 C 95 % 7 lf 1019,1 hPa 0,0 l/m 0 min 0 min 5 W/m 2,1 km/h (1 Bft) 93,48 %
06.07.2016 05:40 10,8 C 11,1 C 10,6 C 95 % 6 lf 1019,1 hPa 0,0 l/m 0 min 0 min 7 W/m 6,3 km/h (2 Bft) 93,62 %
06.07.2016 05:42 10,8 C 11,1 C 10,6 C 95 % 5 lf 1019,1 hPa 0,0 l/m 0 min 0 min 7 W/m 6,3 km/h (2 Bft) 97,87 %
06.07.2016 05:44 10,8 C 11,7 C 10,6 C 95 % 4 lf 1019,1 hPa 0,0 l/m 0 min 0 min 9 W/m 2,1 km/h (1 Bft) 97,87 %
06.07.2016 05:46 10,8 C 11,7 C 10,6 C 95 % 4 lf 1019,1 hPa 0,0 l/m 0 min 0 min 7 W/m 4,2 km/h (1 Bft) 95,74 %
06.07.2016 05:48 10,9 C 11,7 C 10,6 C 95 % 4 lf 1019,1 hPa 0,0 l/m 0 min 0 min 7 W/m 8,4 km/h (2 Bft) 100,00 %
06.07.2016 05:50 10,9 C 11,7 C 10,6 C 95 % 3 lf 1019,2 hPa 0,0 l/m 0 min 0 min 7 W/m 4,2 km/h (1 Bft) 97,83 %
06.07.2016 05:52 10,9 C 11,7 C 10,6 C 95 % 3 lf 1019,2 hPa 0,0 l/m 0 min 0 min 7 W/m 8,4 km/h (2 Bft) 97,87 %
06.07.2016 05:54 11,0 C 11,7 C 10,6 C 95 % 3 lf 1019,2 hPa 0,0 l/m 0 min 0 min 6 W/m 8,4 km/h (2 Bft) 95,74 %
06.07.2016 05:56 11,1 C 11,7 C 10,6 C 95 % 3 lf 1019,3 hPa 0,0 l/m 0 min 0 min 5 W/m 8,4 km/h (2 Bft) 97,87 %
06.07.2016 05:58 11,1 C 11,7 C 10,6 C 95 % 2 lf 1019,2 hPa 0,0 l/m 0 min 0 min 5 W/m 10,5 km/h (2 Bft) 97,87 %
06.07.2016 06:00 11,2 C 11,7 C 10,6 C 95 % 2 lf 1019,2 hPa 0,0 l/m 0 min 0 min 5 W/m 10,5 km/h (2 Bft) 97,87 %
06.07.2016 06:02 11,2 C 11,7 C 10,6 C 95 % 3 lf 1019,2 hPa 0,0 l/m 0 min 0 min 5 W/m 6,3 km/h (2 Bft) 97,83 %
06.07.2016 06:04 11,2 C 11,7 C 10,6 C 95 % 5 lf 1019,2 hPa 0,0 l/m 0 min 2 min 6 W/m 4,2 km/h (1 Bft) 97,87 %
06.07.2016 06:06 11,3 C 11,7 C 10,6 C 95 % 4 lf 1019,1 hPa 0,0 l/m 0 min 2 min 7 W/m 6,3 km/h (2 Bft) 95,74 %
06.07.2016 06:08 11,3 C 11,7 C 10,6 C 95 % 4 lf 1019,1 hPa 0,0 l/m 0 min 0 min 8 W/m 8,4 km/h (2 Bft) 97,87 %
06.07.2016 06:10 11,4 C 11,7 C 11,1 C 95 % 4 lf 1019,1 hPa 0,0 l/m 0 min 0 min 9 W/m 8,4 km/h (2 Bft) 97,87 %
06.07.2016 06:12 11,4 C 11,7 C 11,1 C 95 % 3 lf 1019,0 hPa 0,0 l/m 0 min 0 min 9 W/m 8,4 km/h (2 Bft) 93,62 %
06.07.2016 06:14 11,4 C 11,7 C 11,1 C 95 % 3 lf 1018,9 hPa 0,0 l/m 0 min 0 min 10 W/m 6,3 km/h (2 Bft) 95,65 %
06.07.2016 06:16 11,5 C 11,7 C 11,1 C 95 % 3 lf 1018,9 hPa 0,0 l/m 0 min 0 min 11 W/m 6,3 km/h (2 Bft) 95,74 %
06.07.2016 06:18 11,5 C 11,7 C 11,1 C 95 % 2 lf 1018,9 hPa 0,0 l/m 0 min 0 min 11 W/m 6,3 km/h (2 Bft) 97,87 %
06.07.2016 06:20 11,5 C 11,7 C 11,1 C 95 % 2 lf 1018,9 hPa 0,0 l/m 0 min 0 min 12 W/m 8,4 km/h (2 Bft) 95,74 %
06.07.2016 06:22 11,5 C 12,2 C 11,1 C 95 % 1 lf 1018,9 hPa 0,0 l/m 0 min 0 min 13 W/m 8,4 km/h (2 Bft) 95,74 %
06.07.2016 06:24 11,6 C 12,2 C 11,1 C 96 % 1 lf 1018,9 hPa 0,0 l/m 0 min 0 min 16 W/m 6,3 km/h (2 Bft) 97,87 %
06.07.2016 06:26 11,6 C 12,2 C 11,1 C 96 % 1 lf 1018,9 hPa 0,0 l/m 0 min 0 min 18 W/m 8,4 km/h (2 Bft) 95,65 %
06.07.2016 06:28 11,6 C 12,2 C 11,1 C 96 % 0 lf 1018,9 hPa 0,0 l/m 0 min 0 min 18 W/m 12,6 km/h (3 Bft) 97,87 %
06.07.2016 06:30 11,6 C 12,2 C 11,1 C 96 % 0 lf 1018,9 hPa 0,0 l/m 0 min 0 min 18 W/m 2,1 km/h (1 Bft) 97,87 %
06.07.2016 06:32 11,7 C 12,2 C 11,1 C 96 % 0 lf 1019,0 hPa 0,0 l/m 0 min 0 min 18 W/m 8,4 km/h (2 Bft) 97,87 %
06.07.2016 06:34 11,7 C 12,2 C 11,1 C 96 % 0 lf 1019,1 hPa 0,0 l/m 0 min 0 min 18 W/m 4,2 km/h (1 Bft) 97,87 %
06.07.2016 06:36 11,7 C 12,2 C 11,1 C 96 % 0 lf 1019,1 hPa 0,0 l/m 0 min 0 min 22 W/m 6,3 km/h (2 Bft) 97,83 %
06.07.2016 06:38 11,7 C 12,2 C 11,1 C 96 % 0 lf 1019,1 hPa 0,0 l/m 0 min 0 min 26 W/m 6,3 km/h (2 Bft) 95,74 %
06.07.2016 06:40 11,7 C 12,2 C 11,1 C 96 % 0 lf 1019,1 hPa 0,0 l/m 0 min 0 min 28 W/m 6,3 km/h (2 Bft) 100,00 %
06.07.2016 06:42 11,7 C 12,2 C 11,1 C 96 % 0 lf 1019,1 hPa 0,0 l/m 0 min 0 min 32 W/m 4,2 km/h (1 Bft) 97,87 %
06.07.2016 06:44 11,8 C 12,2 C 11,7 C 96 % 0 lf 1019,1 hPa 0,0 l/m 0 min 0 min 33 W/m 8,4 km/h (2 Bft) 93,62 %
06.07.2016 06:46 11,8 C 12,2 C 11,7 C 96 % 0 lf 1019,2 hPa 0,0 l/m 0 min 0 min 33 W/m 4,2 km/h (1 Bft) 97,87 %
06.07.2016 06:48 11,8 C 12,2 C 11,7 C 96 % 0 lf 1019,1 hPa 0,0 l/m 0 min 0 min 34 W/m 4,2 km/h (1 Bft) 95,65 %
06.07.2016 06:50 11,8 C 12,8 C 11,7 C 96 % 0 lf 1019,1 hPa 0,0 l/m 0 min 0 min 38 W/m 6,3 km/h (2 Bft) 95,74 %
06.07.2016 06:52 11,8 C 12,8 C 11,7 C 96 % 0 lf 1019,1 hPa 0,0 l/m 0 min 0 min 40 W/m 6,3 km/h (2 Bft) 95,74 %
06.07.2016 06:54 11,9 C 12,8 C 11,7 C 96 % 0 lf 1019,1 hPa 0,0 l/m 0 min 0 min 45 W/m 8,4 km/h (2 Bft) 95,74 %
06.07.2016 06:56 11,9 C 12,8 C 11,7 C 96 % 0 lf 1019,2 hPa 0,0 l/m 0 min 0 min 47 W/m 6,3 km/h (2 Bft) 95,74 %
06.07.2016 06:58 11,9 C 12,8 C 11,7 C 96 % 0 lf 1019,1 hPa 0,0 l/m 0 min 0 min 49 W/m 6,3 km/h (2 Bft) 93,62 %
06.07.2016 07:00 11,9 C 12,8 C 11,7 C 96 % 0 lf 1019,1 hPa 0,0 l/m 0 min 0 min 50 W/m 6,3 km/h (2 Bft) 95,65 %
06.07.2016 07:02 11,9 C 12,8 C 11,7 C 96 % 0 lf 1019,0 hPa 0,0 l/m 0 min 0 min 49 W/m 6,3 km/h (2 Bft) 95,74 %
06.07.2016 07:04 11,9 C 12,8 C 11,7 C 96 % 0 lf 1019,0 hPa 0,0 l/m 0 min 0 min 45 W/m 8,4 km/h (2 Bft) 93,62 %
06.07.2016 07:06 11,9 C 12,8 C 11,7 C 96 % 0 lf 1018,9 hPa 0,0 l/m 0 min 0 min 43 W/m 6,3 km/h (2 Bft) 89,36 %
06.07.2016 07:08 11,9 C 12,8 C 11,7 C 96 % 0 lf 1018,9 hPa 0,0 l/m 0 min 0 min 42 W/m 6,3 km/h (2 Bft) 95,74 %
06.07.2016 07:10 11,9 C 12,8 C 11,7 C 96 % 0 lf 1018,9 hPa 0,0 l/m 0 min 0 min 46 W/m 8,4 km/h (2 Bft) 95,74 %
06.07.2016 07:12 12,0 C 12,8 C 11,7 C 96 % 0 lf 1018,9 hPa 0,0 l/m 0 min 0 min 59 W/m 4,2 km/h (1 Bft) 89,13 %
06.07.2016 07:14 12,0 C 12,8 C 11,7 C 96 % 0 lf 1019,0 hPa 0,0 l/m 0 min 0 min 76 W/m 6,3 km/h (2 Bft) 95,74 %
06.07.2016 07:16 12,0 C 12,8 C 11,7 C 96 % 0 lf 1019,0 hPa 0,0 l/m 0 min 0 min 81 W/m 6,3 km/h (2 Bft) 95,74 %
06.07.2016 07:18 12,0 C 12,8 C 11,7 C 96 % 0 lf 1019,0 hPa 0,0 l/m 0 min 0 min 80 W/m 2,1 km/h (1 Bft) 95,74 %
06.07.2016 07:20 12,0 C 13,3 C 12,2 C 96 % 0 lf 1019,1 hPa 0,0 l/m 0 min 0 min 87 W/m 4,2 km/h (1 Bft) 91,49 %
06.07.2016 07:22 12,0 C 13,3 C 12,2 C 96 % 0 lf 1019,1 hPa 0,0 l/m 0 min 0 min 96 W/m 4,2 km/h (1 Bft) 95,74 %
06.07.2016 07:24 12,0 C 13,3 C 12,2 C 96 % 0 lf 1019,1 hPa 0,0 l/m 0 min 0 min 102 W/m 4,2 km/h (1 Bft) 97,83 %
06.07.2016 07:26 12,0 C 13,3 C 12,2 C 96 % 0 lf 1019,1 hPa 0,0 l/m 0 min 0 min 112 W/m 2,1 km/h (1 Bft) 97,87 %
06.07.2016 07:28 12,1 C 13,3 C 12,2 C 96 % 0 lf 1019,2 hPa 0,0 l/m 0 min 0 min 109 W/m 6,3 km/h (2 Bft) 95,74 %
06.07.2016 07:30 12,1 C 13,3 C 12,2 C 96 % 0 lf 1019,2 hPa 0,0 l/m 0 min 0 min 108 W/m 4,2 km/h (1 Bft) 95,74 %
06.07.2016 07:32 12,1 C 13,3 C 12,2 C 96 % 0 lf 1019,2 hPa 0,0 l/m 2 min 0 min 142 W/m 6,3 km/h (2 Bft) 95,74 %
06.07.2016 07:34 12,1 C 13,9 C 12,2 C 96 % 0 lf 1019,2 hPa 0,0 l/m 2 min 0 min 148 W/m 2,1 km/h (1 Bft) 95,74 %
06.07.2016 07:36 12,1 C 13,9 C 12,2 C 96 % 0 lf 1019,3 hPa 0,0 l/m 0 min 0 min 108 W/m 4,2 km/h (1 Bft) 95,65 %
06.07.2016 07:38 12,1 C 13,9 C 12,2 C 96 % 0 lf 1019,3 hPa 0,0 l/m 0 min 0 min 100 W/m 4,2 km/h (1 Bft) 95,74 %
06.07.2016 07:40 12,1 C 13,9 C 12,2 C 96 % 0 lf 1019,2 hPa 0,0 l/m 2 min 0 min 176 W/m 0,0 km/h (0 Bft) 95,74 %
06.07.2016 07:42 12,2 C 13,3 C 11,7 C 96 % 0 lf 1019,2 hPa 0,0 l/m 2 min 0 min 276 W/m 0,0 km/h (0 Bft) 93,62 %
06.07.2016 07:44 12,2 C 13,3 C 11,7 C 96 % 0 lf 1019,3 hPa 0,0 l/m 2 min 0 min 295 W/m 4,2 km/h (1 Bft) 93,62 %
06.07.2016 07:46 12,2 C 13,3 C 11,7 C 96 % 0 lf 1019,3 hPa 0,0 l/m 2 min 0 min 302 W/m 6,3 km/h (2 Bft) 91,49 %
06.07.2016 07:48 12,2 C 13,3 C 11,7 C 96 % 0 lf 1019,3 hPa 0,0 l/m 2 min 0 min 306 W/m 6,3 km/h (2 Bft) 95,65 %
06.07.2016 07:50 12,2 C 13,9 C 11,7 C 96 % 0 lf 1019,3 hPa 0,0 l/m 2 min 0 min 323 W/m 4,2 km/h (1 Bft) 95,74 %
06.07.2016 07:52 12,2 C 13,9 C 12,2 C 96 % 0 lf 1019,3 hPa 0,0 l/m 2 min 0 min 347 W/m 4,2 km/h (1 Bft) 95,74 %
06.07.2016 07:54 12,2 C 13,9 C 12,2 C 96 % 0 lf 1019,3 hPa 0,0 l/m 2 min 0 min 359 W/m 4,2 km/h (1 Bft) 97,87 %
06.07.2016 07:56 12,2 C 14,4 C 12,2 C 95 % 0 lf 1019,3 hPa 0,0 l/m 2 min 0 min 364 W/m 4,2 km/h (1 Bft) 100,00 %
06.07.2016 07:58 12,2 C 14,4 C 12,2 C 95 % 0 lf 1019,3 hPa 0,0 l/m 2 min 0 min 360 W/m 4,2 km/h (1 Bft) 97,83 %
06.07.2016 08:00 12,2 C 14,4 C 12,2 C 95 % 0 lf 1019,3 hPa 0,0 l/m 2 min 0 min 352 W/m 6,3 km/h (2 Bft) 97,87 %
06.07.2016 08:02 12,2 C 14,4 C 12,2 C 95 % 0 lf 1019,3 hPa 0,0 l/m 2 min 0 min 354 W/m 6,3 km/h (2 Bft) 95,74 %
06.07.2016 08:04 12,3 C 14,4 C 12,2 C 95 % 0 lf 1019,2 hPa 0,0 l/m 2 min 0 min 356 W/m 6,3 km/h (2 Bft) 97,87 %
06.07.2016 08:06 12,3 C 14,4 C 12,2 C 95 % 0 lf 1019,3 hPa 0,0 l/m 2 min 0 min 360 W/m 6,3 km/h (2 Bft) 97,87 %
06.07.2016 08:08 12,4 C 14,4 C 12,2 C 95 % 0 lf 1019,3 hPa 0,0 l/m 2 min 0 min 365 W/m 4,2 km/h (1 Bft) 97,87 %
06.07.2016 08:10 12,4 C 14,4 C 12,2 C 95 % 0 lf 1019,4 hPa 0,0 l/m 2 min 0 min 376 W/m 6,3 km/h (2 Bft) 97,87 %
06.07.2016 08:12 12,5 C 15,0 C 12,8 C 95 % 0 lf 1019,3 hPa 0,0 l/m 2 min 0 min 412 W/m 6,3 km/h (2 Bft) 97,83 %
06.07.2016 08:14 12,6 C 15,0 C 13,3 C 95 % 0 lf 1019,3 hPa 0,0 l/m 2 min 0 min 437 W/m 6,3 km/h (2 Bft) 95,74 %
06.07.2016 08:16 12,6 C 15,6 C 13,9 C 95 % 0 lf 1019,3 hPa 0,0 l/m 2 min 0 min 456 W/m 4,2 km/h (1 Bft) 97,87 %
06.07.2016 08:18 12,7 C 16,1 C 13,9 C 95 % 0 lf 1019,2 hPa 0,0 l/m 2 min 0 min 435 W/m 2,1 km/h (1 Bft) 97,87 %
06.07.2016 08:20 12,7 C 16,7 C 14,4 C 95 % 0 lf 1019,2 hPa 0,0 l/m 2 min 0 min 248 W/m 2,1 km/h (1 Bft) 95,74 %
06.07.2016 08:22 12,8 C 17,2 C 15,0 C 95 % 0 lf 1019,3 hPa 0,0 l/m 2 min 0 min 283 W/m 6,3 km/h (2 Bft) 97,83 %
06.07.2016 08:24 12,9 C 17,8 C 15,0 C 95 % 0 lf 1019,3 hPa 0,0 l/m 2 min 0 min 308 W/m 6,3 km/h (2 Bft) 97,87 %
06.07.2016 08:26 13,0 C 18,3 C 15,6 C 95 % 0 lf 1019,3 hPa 0,0 l/m 2 min 0 min 298 W/m 6,3 km/h (2 Bft) 91,49 %
06.07.2016 08:28 13,1 C 17,8 C 15,6 C 95 % 0 lf 1019,3 hPa 0,0 l/m 2 min 0 min 264 W/m 8,4 km/h (2 Bft) 97,87 %
06.07.2016 08:30 13,2 C 17,8 C 15,6 C 95 % 0 lf 1019,4 hPa 0,0 l/m 2 min 0 min 241 W/m 8,4 km/h (2 Bft) 95,74 %
06.07.2016 08:32 13,3 C 17,2 C 15,6 C 95 % 0 lf 1019,4 hPa 0,0 l/m 2 min 0 min 231 W/m 8,4 km/h (2 Bft) 100,00 %
06.07.2016 08:34 13,4 C 17,2 C 15,6 C 95 % 0 lf 1019,4 hPa 0,0 l/m 2 min 0 min 220 W/m 8,4 km/h (2 Bft) 97,83 %
06.07.2016 08:36 13,5 C 17,2 C 16,1 C 95 % 0 lf 1019,5 hPa 0,0 l/m 2 min 0 min 215 W/m 8,4 km/h (2 Bft) 97,87 %
06.07.2016 08:38 13,6 C 17,2 C 16,1 C 94 % 0 lf 1019,6 hPa 0,0 l/m 0 min 0 min 213 W/m 8,4 km/h (2 Bft) 95,74 %
06.07.2016 08:40 13,8 C 17,2 C 16,1 C 95 % 0 lf 1019,6 hPa 0,0 l/m 0 min 0 min 212 W/m 6,3 km/h (2 Bft) 100,00 %
06.07.2016 08:42 13,9 C 17,8 C 16,1 C 94 % 0 lf 1019,6 hPa 0,0 l/m 0 min 0 min 214 W/m 4,2 km/h (1 Bft) 95,74 %
06.07.2016 08:44 14,0 C 17,8 C 16,1 C 94 % 0 lf 1019,6 hPa 0,0 l/m 0 min 0 min 221 W/m 8,4 km/h (2 Bft) 95,74 %
06.07.2016 08:46 14,1 C 17,8 C 16,1 C 94 % 0 lf 1019,7 hPa 0,0 l/m 2 min 0 min 229 W/m 10,5 km/h (2 Bft) 91,30 %
06.07.2016 08:48 14,2 C 18,3 C 16,1 C 93 % 0 lf 1019,7 hPa 0,0 l/m 0 min 0 min 224 W/m 16,7 km/h (3 Bft) 97,87 %
06.07.2016 08:50 14,2 C 18,3 C 16,1 C 93 % 0 lf 1019,7 hPa 0,0 l/m 0 min 0 min 227 W/m 14,6 km/h (3 Bft) 95,74 %
06.07.2016 08:52 14,3 C 18,9 C 15,6 C 93 % 0 lf 1019,7 hPa 0,0 l/m 2 min 0 min 236 W/m 10,5 km/h (2 Bft) 95,74 %
06.07.2016 08:54 14,4 C 18,9 C 15,6 C 92 % 0 lf 1019,8 hPa 0,0 l/m 2 min 0 min 315 W/m 10,5 km/h (2 Bft) 95,74 %
06.07.2016 08:56 14,5 C 18,9 C 16,1 C 91 % 0 lf 1019,8 hPa 0,0 l/m 2 min 0 min 266 W/m 16,7 km/h (3 Bft) 93,62 %
06.07.2016 08:58 14,6 C 19,4 C 16,1 C 91 % 0 lf 1019,8 hPa 0,0 l/m 2 min 0 min 308 W/m 12,6 km/h (3 Bft) 97,83 %
06.07.2016 09:00 14,7 C 20,0 C 16,1 C 90 % 0 lf 1019,8 hPa 0,0 l/m 2 min 0 min 349 W/m 14,6 km/h (3 Bft) 93,62 %
06.07.2016 09:02 14,8 C 20,6 C 16,7 C 90 % 0 lf 1019,8 hPa 0,0 l/m 2 min 0 min 366 W/m 8,4 km/h (2 Bft) 97,87 %
06.07.2016 09:04 14,9 C 21,7 C 16,7 C 89 % 0 lf 1019,8 hPa 0,0 l/m 2 min 0 min 362 W/m 10,5 km/h (2 Bft) 95,74 %
06.07.2016 09:06 15,1 C 21,7 C 16,7 C 89 % 0 lf 1019,8 hPa 0,0 l/m 2 min 0 min 411 W/m 10,5 km/h (2 Bft) 97,87 %
06.07.2016 09:08 15,2 C 21,1 C 16,7 C 88 % 0 lf 1019,9 hPa 0,0 l/m 2 min 0 min 501 W/m 14,6 km/h (3 Bft) 95,74 %
06.07.2016 09:10 15,3 C 21,1 C 16,7 C 88 % 0 lf 1019,9 hPa 0,0 l/m 2 min 0 min 276 W/m 8,4 km/h (2 Bft) 97,83 %
06.07.2016 09:12 15,4 C 21,7 C 16,7 C 87 % 0 lf 1020,0 hPa 0,0 l/m 2 min 0 min 295 W/m 8,4 km/h (2 Bft) 97,87 %
06.07.2016 09:14 15,6 C 22,8 C 16,7 C 87 % 0 lf 1019,9 hPa 0,0 l/m 2 min 0 min 465 W/m 10,5 km/h (2 Bft) 95,74 %
06.07.2016 09:16 15,7 C 21,7 C 16,7 C 86 % 0 lf 1020,0 hPa 0,0 l/m 2 min 0 min 445 W/m 14,6 km/h (3 Bft) 100,00 %
06.07.2016 09:18 15,8 C 21,7 C 16,7 C 86 % 0 lf 1019,9 hPa 0,0 l/m 2 min 0 min 412 W/m 8,4 km/h (2 Bft) 91,49 %
06.07.2016 09:20 15,9 C 21,1 C 16,7 C 86 % 0 lf 1020,0 hPa 0,0 l/m 2 min 0 min 360 W/m 14,6 km/h (3 Bft) 97,83 %
06.07.2016 09:22 15,9 C 22,2 C 16,7 C 85 % 0 lf 1019,9 hPa 0,0 l/m 2 min 0 min 311 W/m 14,6 km/h (3 Bft) 97,87 %
06.07.2016 09:24 16,0 C 22,2 C 16,7 C 84 % 0 lf 1020,0 hPa 0,0 l/m 2 min 0 min 336 W/m 16,7 km/h (3 Bft) 97,87 %
06.07.2016 09:26 16,1 C 23,3 C 17,2 C 84 % 0 lf 1019,9 hPa 0,0 l/m 2 min 0 min 387 W/m 14,6 km/h (3 Bft) 93,62 %
06.07.2016 09:28 16,3 C 23,3 C 17,2 C 84 % 0 lf 1020,0 hPa 0,0 l/m 2 min 0 min 376 W/m 12,6 km/h (3 Bft) 97,87 %
06.07.2016 09:30 16,3 C 22,8 C 17,2 C 83 % 0 lf 1019,9 hPa 0,0 l/m 2 min 0 min 343 W/m 10,5 km/h (2 Bft) 93,62 %
06.07.2016 09:32 16,4 C 21,7 C 17,2 C 83 % 0 lf 1020,0 hPa 0,0 l/m 2 min 0 min 317 W/m 12,6 km/h (3 Bft) 97,83 %
06.07.2016 09:34 16,4 C 21,1 C 17,2 C 82 % 0 lf 1020,0 hPa 0,0 l/m 2 min 0 min 292 W/m 16,7 km/h (3 Bft) 93,62 %
06.07.2016 09:36 16,5 C 20,6 C 17,2 C 82 % 0 lf 1020,0 hPa 0,0 l/m 2 min 0 min 303 W/m 14,6 km/h (3 Bft) 93,62 %
06.07.2016 09:38 16,5 C 20,6 C 17,2 C 81 % 0 lf 1020,0 hPa 0,0 l/m 2 min 0 min 306 W/m 8,4 km/h (2 Bft) 97,87 %
06.07.2016 09:40 16,6 C 20,0 C 17,2 C 81 % 0 lf 1020,0 hPa 0,0 l/m 2 min 0 min 289 W/m 10,5 km/h (2 Bft) 95,74 %
06.07.2016 09:42 16,6 C 19,4 C 17,2 C 81 % 0 lf 1019,9 hPa 0,0 l/m 2 min 0 min 324 W/m 8,4 km/h (2 Bft) 95,74 %
06.07.2016 09:44 16,6 C 21,1 C 17,2 C 81 % 0 lf 1020,0 hPa 0,0 l/m 2 min 0 min 421 W/m 8,4 km/h (2 Bft) 97,83 %
06.07.2016 09:46 16,6 C 22,8 C 17,2 C 81 % 0 lf 1019,9 hPa 0,0 l/m 2 min 0 min 554 W/m 10,5 km/h (2 Bft) 95,74 %
06.07.2016 09:48 16,7 C 23,9 C 17,8 C 81 % 0 lf 1020,0 hPa 0,0 l/m 2 min 0 min 572 W/m 4,2 km/h (1 Bft) 95,74 %
06.07.2016 09:50 16,7 C 23,9 C 17,8 C 81 % 0 lf 1019,9 hPa 0,0 l/m 2 min 0 min 577 W/m 8,4 km/h (2 Bft) 91,49 %
06.07.2016 09:52 16,8 C 25,0 C 17,8 C 80 % 0 lf 1020,0 hPa 0,0 l/m 2 min 0 min 577 W/m 10,5 km/h (2 Bft) 93,62 %
06.07.2016 09:54 16,9 C 25,0 C 18,3 C 80 % 0 lf 1020,0 hPa 0,0 l/m 2 min 0 min 484 W/m 10,5 km/h (2 Bft) 93,62 %
06.07.2016 09:56 16,9 C 26,1 C 18,9 C 79 % 0 lf 1020,0 hPa 0,0 l/m 2 min 0 min 647 W/m 12,6 km/h (3 Bft) 93,48 %
06.07.2016 09:58 17,0 C 25,6 C 18,9 C 79 % 0 lf 1020,0 hPa 0,0 l/m 2 min 0 min 854 W/m 8,4 km/h (2 Bft) 95,74 %
06.07.2016 10:00 17,1 C 24,4 C 18,9 C 79 % 0 lf 1020,0 hPa 0,0 l/m 2 min 0 min 655 W/m 8,4 km/h (2 Bft) 95,74 %
06.07.2016 10:02 17,2 C 25,0 C 19,4 C 79 % 0 lf 1019,9 hPa 0,0 l/m 2 min 0 min 329 W/m 10,5 km/h (2 Bft) 93,62 %
06.07.2016 10:04 17,2 C 25,0 C 20,0 C 78 % 0 lf 1020,0 hPa 0,0 l/m 2 min 0 min 401 W/m 12,6 km/h (3 Bft) 93,62 %
06.07.2016 10:06 17,2 C 22,8 C 19,4 C 78 % 0 lf 1020,0 hPa 0,0 l/m 2 min 0 min 407 W/m 12,6 km/h (3 Bft) 95,74 %
06.07.2016 10:08 17,3 C 25,0 C 20,6 C 79 % 0 lf 1020,0 hPa 0,0 l/m 2 min 0 min 322 W/m 10,5 km/h (2 Bft) 91,30 %
06.07.2016 10:10 17,4 C 26,7 C 21,1 C 78 % 0 lf 1020,0 hPa 0,0 l/m 2 min 0 min 667 W/m 12,6 km/h (3 Bft) 93,62 %
06.07.2016 10:12 17,4 C 26,1 C 21,1 C 78 % 0 lf 1020,0 hPa 0,0 l/m 2 min 0 min 824 W/m 10,5 km/h (2 Bft) 93,62 %
06.07.2016 10:14 17,6 C 25,0 C 20,6 C 78 % 0 lf 1020,0 hPa 0,0 l/m 2 min 0 min 520 W/m 12,6 km/h (3 Bft) 93,62 %
06.07.2016 10:16 17,6 C 25,0 C 20,6 C 77 % 0 lf 1020,0 hPa 0,0 l/m 2 min 0 min 366 W/m 8,4 km/h (2 Bft) 95,74 %
06.07.2016 10:18 17,7 C 25,0 C 20,6 C 76 % 0 lf 1020,1 hPa 0,0 l/m 2 min 0 min 448 W/m 6,3 km/h (2 Bft) 95,74 %
06.07.2016 10:20 17,7 C 23,9 C 20,0 C 76 % 0 lf 1020,1 hPa 0,0 l/m 2 min 0 min 373 W/m 14,6 km/h (3 Bft) 97,83 %
06.07.2016 10:22 17,7 C 25,0 C 20,0 C 75 % 0 lf 1020,1 hPa 0,0 l/m 2 min 0 min 354 W/m 10,5 km/h (2 Bft) 95,74 %
06.07.2016 10:24 17,7 C 24,4 C 20,6 C 74 % 0 lf 1020,1 hPa 0,0 l/m 2 min 0 min 373 W/m 8,4 km/h (2 Bft) 93,62 %
06.07.2016 10:26 17,8 C 25,0 C 21,1 C 74 % 0 lf 1020,1 hPa 0,0 l/m 2 min 0 min 373 W/m 12,6 km/h (3 Bft) 97,87 %
06.07.2016 10:28 17,8 C 26,1 C 22,2 C 74 % 0 lf 1020,2 hPa 0,0 l/m 2 min 0 min 373 W/m 14,6 km/h (3 Bft) 97,87 %
06.07.2016 10:30 17,9 C 24,4 C 21,1 C 74 % 0 lf 1020,2 hPa 0,0 l/m 2 min 0 min 345 W/m 8,4 km/h (2 Bft) 97,87 %
06.07.2016 10:32 18,0 C 26,7 C 21,7 C 75 % 0 lf 1020,2 hPa 0,0 l/m 2 min 0 min 362 W/m 10,5 km/h (2 Bft) 95,65 %
06.07.2016 10:34 18,0 C 26,7 C 22,2 C 74 % 0 lf 1020,3 hPa 0,0 l/m 2 min 0 min 362 W/m 6,3 km/h (2 Bft) 95,74 %
06.07.2016 10:36 18,1 C 26,7 C 22,8 C 74 % 0 lf 1020,2 hPa 0,0 l/m 2 min 0 min 362 W/m 12,6 km/h (3 Bft) 93,62 %
06.07.2016 10:38 18,2 C 27,8 C 23,9 C 74 % 0 lf 1020,2 hPa 0,0 l/m 2 min 0 min 670 W/m 12,6 km/h (3 Bft) 89,36 %
06.07.2016 10:40 18,3 C 28,3 C 23,9 C 74 % 0 lf 1020,2 hPa 0,0 l/m 2 min 0 min 803 W/m 12,6 km/h (3 Bft) 93,62 %
06.07.2016 10:42 18,5 C 28,3 C 25,0 C 74 % 0 lf 1020,2 hPa 0,0 l/m 2 min 0 min 759 W/m 10,5 km/h (2 Bft) 95,74 %
06.07.2016 10:44 18,7 C 30,0 C 25,0 C 73 % 0 lf 1020,2 hPa 0,0 l/m 2 min 0 min 866 W/m 14,6 km/h (3 Bft) 95,65 %
06.07.2016 10:46 18,8 C 28,3 C 24,4 C 72 % 0 lf 1020,3 hPa 0,0 l/m 2 min 0 min 911 W/m 14,6 km/h (3 Bft) 95,74 %
06.07.2016 10:48 18,9 C 27,2 C 24,4 C 71 % 0 lf 1020,3 hPa 0,0 l/m 2 min 0 min 773 W/m 12,6 km/h (3 Bft) 95,74 %
06.07.2016 10:50 18,9 C 27,8 C 23,9 C 71 % 0 lf 1020,3 hPa 0,0 l/m 2 min 0 min 638 W/m 16,7 km/h (3 Bft) 93,62 %
06.07.2016 10:52 19,0 C 27,8 C 23,9 C 69 % 0 lf 1020,3 hPa 0,0 l/m 2 min 0 min 741 W/m 16,7 km/h (3 Bft) 95,74 %
06.07.2016 10:54 19,1 C 26,7 C 25,0 C 70 % 0 lf 1020,3 hPa 0,0 l/m 2 min 0 min 730 W/m 8,4 km/h (2 Bft) 95,65 %
06.07.2016 10:56 19,1 C 26,7 C 25,0 C 69 % 0 lf 1020,3 hPa 0,0 l/m 2 min 0 min 759 W/m 10,5 km/h (2 Bft) 91,49 %
06.07.2016 10:58 19,2 C 26,7 C 24,4 C 70 % 0 lf 1020,3 hPa 0,0 l/m 2 min 0 min 759 W/m 16,7 km/h (3 Bft) 93,62 %
06.07.2016 11:00 19,2 C 25,6 C 23,3 C 68 % 0 lf 1020,3 hPa 0,0 l/m 2 min 0 min 598 W/m 18,8 km/h (3 Bft) 95,74 %
06.07.2016 11:02 19,2 C 26,1 C 22,8 C 67 % 0 lf 1020,3 hPa 0,0 l/m 2 min 0 min 418 W/m 23,0 km/h (4 Bft) 95,74 %
06.07.2016 11:04 19,2 C 27,2 C 22,8 C 66 % 0 lf 1020,3 hPa 0,0 l/m 2 min 0 min 927 W/m 20,9 km/h (4 Bft) 95,74 %
06.07.2016 11:06 19,2 C 27,2 C 22,8 C 66 % 0 lf 1020,4 hPa 0,0 l/m 2 min 0 min 1038 W/m 18,8 km/h (3 Bft) 95,65 %
06.07.2016 11:08 19,2 C 26,1 C 21,7 C 66 % 0 lf 1020,4 hPa 0,0 l/m 2 min 0 min 431 W/m 14,6 km/h (3 Bft) 95,74 %
06.07.2016 11:10 19,2 C 26,1 C 21,7 C 66 % 0 lf 1020,4 hPa 0,0 l/m 2 min 0 min 536 W/m 18,8 km/h (3 Bft) 95,74 %
06.07.2016 11:12 19,2 C 26,1 C 22,2 C 66 % 0 lf 1020,4 hPa 0,0 l/m 2 min 0 min 753 W/m 10,5 km/h (2 Bft) 97,87 %
06.07.2016 11:14 19,2 C 28,9 C 23,9 C 68 % 0 lf 1020,4 hPa 0,0 l/m 2 min 0 min 832 W/m 18,8 km/h (3 Bft) 91,49 %
06.07.2016 11:16 19,2 C 27,8 C 23,3 C 68 % 0 lf 1020,4 hPa 0,0 l/m 2 min 0 min 1079 W/m 18,8 km/h (3 Bft) 95,74 %
06.07.2016 11:18 19,3 C 28,3 C 23,9 C 68 % 0 lf 1020,4 hPa 0,0 l/m 2 min 0 min 440 W/m 14,6 km/h (3 Bft) 95,65 %
06.07.2016 11:20 19,3 C 27,8 C 25,0 C 67 % 0 lf 1020,3 hPa 0,0 l/m 2 min 0 min 737 W/m 16,7 km/h (3 Bft) 97,87 %
06.07.2016 11:22 19,4 C 28,3 C 25,0 C 66 % 0 lf 1020,5 hPa 0,0 l/m 2 min 0 min 984 W/m 27,2 km/h (4 Bft) 97,87 %
06.07.2016 11:24 19,4 C 28,9 C 25,6 C 65 % 0 lf 1020,5 hPa 0,0 l/m 2 min 0 min 999 W/m 14,6 km/h (3 Bft) 97,87 %
06.07.2016 11:26 19,5 C 29,4 C 24,4 C 66 % 0 lf 1020,4 hPa 0,0 l/m 2 min 0 min 990 W/m 10,5 km/h (2 Bft) 95,74 %
06.07.2016 11:28 19,6 C 27,8 C 23,3 C 65 % 0 lf 1020,4 hPa 0,0 l/m 2 min 0 min 765 W/m 14,6 km/h (3 Bft) 97,87 %
06.07.2016 11:30 19,6 C 27,8 C 23,9 C 65 % 0 lf 1020,4 hPa 0,0 l/m 2 min 0 min 442 W/m 12,6 km/h (3 Bft) 97,83 %
06.07.2016 11:32 19,6 C 28,9 C 23,9 C 66 % 0 lf 1020,5 hPa 0,0 l/m 2 min 0 min 604 W/m 8,4 km/h (2 Bft) 100,00 %
06.07.2016 11:34 19,7 C 29,4 C 23,9 C 69 % 0 lf 1020,5 hPa 0,0 l/m 2 min 0 min 1070 W/m 10,5 km/h (2 Bft) 100,00 %
06.07.2016 11:36 19,9 C 30,6 C 23,9 C 68 % 0 lf 1020,5 hPa 0,0 l/m 2 min 0 min 1005 W/m 8,4 km/h (2 Bft) 97,87 %
06.07.2016 11:38 19,9 C 30,6 C 24,4 C 68 % 0 lf 1020,5 hPa 0,0 l/m 2 min 0 min 1005 W/m 14,6 km/h (3 Bft) 100,00 %
06.07.2016 11:40 20,1 C 28,9 C 23,3 C 66 % 0 lf 1020,5 hPa 0,0 l/m 2 min 0 min 1005 W/m 14,6 km/h (3 Bft) 100,00 %
06.07.2016 11:42 20,1 C 28,9 C 23,9 C 65 % 0 lf 1020,6 hPa 0,0 l/m 2 min 0 min 1005 W/m 20,9 km/h (4 Bft) 100,00 %
06.07.2016 11:44 20,0 C 27,2 C 22,2 C 63 % 0 lf 1020,5 hPa 0,0 l/m 2 min 0 min 1005 W/m 16,7 km/h (3 Bft) 100,00 %
06.07.2016 11:46 20,0 C 27,8 C 23,3 C 65 % 0 lf 1020,5 hPa 0,0 l/m 2 min 0 min 1005 W/m 12,6 km/h (3 Bft) 100,00 %
06.07.2016 11:48 20,1 C 28,3 C 24,4 C 66 % 0 lf 1020,6 hPa 0,0 l/m 2 min 0 min 902 W/m 14,6 km/h (3 Bft) 100,00 %
06.07.2016 11:50 20,1 C 27,2 C 24,4 C 64 % 0 lf 1020,6 hPa 0,0 l/m 2 min 0 min 828 W/m 20,9 km/h (4 Bft) 97,87 %
06.07.2016 11:52 20,1 C 28,3 C 24,4 C 64 % 0 lf 1020,6 hPa 0,0 l/m 2 min 0 min 717 W/m 16,7 km/h (3 Bft) 97,87 %
06.07.2016 11:54 20,1 C 30,0 C 25,6 C 64 % 0 lf 1020,7 hPa 0,0 l/m 2 min 0 min 758 W/m 18,8 km/h (3 Bft) 100,00 %
06.07.2016 11:56 20,1 C 28,3 C 25,0 C 63 % 0 lf 1020,7 hPa 0,0 l/m 2 min 0 min 883 W/m 8,4 km/h (2 Bft) 97,87 %
06.07.2016 11:58 20,1 C 27,2 C 22,8 C 63 % 0 lf 1020,6 hPa 0,0 l/m 2 min 0 min 424 W/m 14,6 km/h (3 Bft) 100,00 %
06.07.2016 12:00 20,1 C 25,0 C 21,1 C 63 % 0 lf 1020,5 hPa 0,0 l/m 0 min 0 min 300 W/m 18,8 km/h (3 Bft) 97,87 %
06.07.2016 12:02 20,1 C 27,2 C 22,8 C 65 % 0 lf 1020,6 hPa 0,0 l/m 2 min 0 min 483 W/m 8,4 km/h (2 Bft) 97,87 %
06.07.2016 12:04 20,1 C 28,3 C 23,9 C 66 % 0 lf 1020,6 hPa 0,0 l/m 2 min 0 min 956 W/m 14,6 km/h (3 Bft) 100,00 %
06.07.2016 12:06 20,1 C 29,4 C 24,4 C 64 % 0 lf 1020,6 hPa 0,0 l/m 2 min 0 min 955 W/m 14,6 km/h (3 Bft) 93,62 %
06.07.2016 12:08 20,1 C 30,6 C 25,0 C 64 % 0 lf 1020,6 hPa 0,0 l/m 2 min 0 min 997 W/m 14,6 km/h (3 Bft) 97,87 %
06.07.2016 12:10 20,1 C 27,8 C 23,3 C 64 % 0 lf 1020,6 hPa 0,0 l/m 2 min 0 min 684 W/m 14,6 km/h (3 Bft) 100,00 %
06.07.2016 12:12 20,1 C 27,2 C 22,8 C 64 % 0 lf 1020,6 hPa 0,0 l/m 0 min 0 min 338 W/m 16,7 km/h (3 Bft) 100,00 %
06.07.2016 12:14 20,0 C 27,2 C 22,8 C 64 % 0 lf 1020,5 hPa 0,0 l/m 0 min 0 min 338 W/m 16,7 km/h (3 Bft) 100,00 %
06.07.2016 12:16 19,9 C 26,1 C 22,2 C 64 % 0 lf 1020,5 hPa 0,0 l/m 0 min 0 min 319 W/m 16,7 km/h (3 Bft) 100,00 %
06.07.2016 12:18 20,0 C 26,7 C 23,3 C 66 % 0 lf 1020,5 hPa 0,0 l/m 0 min 0 min 325 W/m 18,8 km/h (3 Bft) 100,00 %
06.07.2016 12:20 20,0 C 25,6 C 22,8 C 65 % 0 lf 1020,6 hPa 0,0 l/m 0 min 0 min 388 W/m 20,9 km/h (4 Bft) 95,74 %
06.07.2016 12:22 20,0 C 27,2 C 23,9 C 64 % 0 lf 1020,7 hPa 0,0 l/m 2 min 0 min 457 W/m 14,6 km/h (3 Bft) 100,00 %
06.07.2016 12:24 19,9 C 27,2 C 23,9 C 64 % 0 lf 1020,7 hPa 0,0 l/m 2 min 0 min 475 W/m 12,6 km/h (3 Bft) 95,74 %
06.07.2016 12:26 19,9 C 25,6 C 22,8 C 63 % 0 lf 1020,7 hPa 0,0 l/m 0 min 0 min 391 W/m 18,8 km/h (3 Bft) 97,87 %
06.07.2016 12:28 19,9 C 24,4 C 21,7 C 63 % 0 lf 1020,7 hPa 0,0 l/m 0 min 0 min 331 W/m 18,8 km/h (3 Bft) 97,83 %
06.07.2016 12:30 19,9 C 23,3 C 21,1 C 63 % 0 lf 1020,7 hPa 0,0 l/m 0 min 0 min 304 W/m 14,6 km/h (3 Bft) 97,87 %
06.07.2016 12:32 19,8 C 23,3 C 20,6 C 63 % 0 lf 1020,7 hPa 0,0 l/m 0 min 0 min 297 W/m 23,0 km/h (4 Bft) 100,00 %
06.07.2016 12:34 19,8 C 23,9 C 21,1 C 63 % 0 lf 1020,7 hPa 0,0 l/m 0 min 0 min 330 W/m 12,6 km/h (3 Bft) 100,00 %
06.07.2016 12:36 19,8 C 27,2 C 22,8 C 64 % 0 lf 1020,7 hPa 0,0 l/m 2 min 0 min 728 W/m 12,6 km/h (3 Bft) 95,74 %
06.07.2016 12:38 19,9 C 28,9 C 23,9 C 65 % 0 lf 1020,7 hPa 0,0 l/m 2 min 0 min 984 W/m 14,6 km/h (3 Bft) 97,87 %
06.07.2016 12:40 20,1 C 29,4 C 23,9 C 64 % 0 lf 1020,6 hPa 0,0 l/m 2 min 0 min 971 W/m 18,8 km/h (3 Bft) 100,00 %
06.07.2016 12:42 20,1 C 30,6 C 23,9 C 63 % 0 lf 1020,7 hPa 0,0 l/m 2 min 0 min 909 W/m 14,6 km/h (3 Bft) 95,74 %
06.07.2016 12:44 20,2 C 30,0 C 23,9 C 62 % 0 lf 1020,6 hPa 0,0 l/m 2 min 0 min 1100 W/m 16,7 km/h (3 Bft) 97,87 %
06.07.2016 12:46 20,3 C 27,8 C 23,3 C 62 % 0 lf 1020,6 hPa 0,0 l/m 2 min 0 min 752 W/m 12,6 km/h (3 Bft) 97,87 %
06.07.2016 12:48 20,3 C 28,3 C 22,2 C 61 % 0 lf 1020,6 hPa 0,0 l/m 2 min 0 min 447 W/m 14,6 km/h (3 Bft) 95,74 %
06.07.2016 12:50 20,3 C 27,2 C 21,7 C 61 % 0 lf 1020,7 hPa 0,0 l/m 2 min 0 min 424 W/m 16,7 km/h (3 Bft) 93,62 %
06.07.2016 12:52 20,3 C 26,1 C 21,7 C 60 % 0 lf 1020,6 hPa 0,0 l/m 2 min 0 min 671 W/m 23,0 km/h (4 Bft) 97,83 %
06.07.2016 12:54 20,4 C 26,7 C 21,7 C 62 % 0 lf 1020,7 hPa 0,0 l/m 2 min 0 min 682 W/m 20,9 km/h (4 Bft) 95,74 %
06.07.2016 12:56 20,4 C 27,2 C 22,2 C 62 % 0 lf 1020,7 hPa 0,0 l/m 2 min 0 min 742 W/m 12,6 km/h (3 Bft) 97,87 %
06.07.2016 12:58 20,6 C 29,4 C 22,8 C 62 % 0 lf 1020,7 hPa 0,0 l/m 2 min 0 min 981 W/m 14,6 km/h (3 Bft) 91,49 %
06.07.2016 13:00 20,6 C 28,3 C 22,8 C 60 % 0 lf 1020,7 hPa 0,0 l/m 2 min 0 min 997 W/m 14,6 km/h (3 Bft) 93,62 %
06.07.2016 13:02 20,6 C 27,8 C 22,8 C 60 % 0 lf 1020,7 hPa 0,0 l/m 2 min 0 min 478 W/m 18,8 km/h (3 Bft) 97,87 %
06.07.2016 13:04 20,7 C 27,8 C 23,9 C 61 % 0 lf 1020,7 hPa 0,0 l/m 2 min 0 min 805 W/m 10,5 km/h (2 Bft) 91,30 %
06.07.2016 13:06 20,7 C 29,4 C 24,4 C 61 % 0 lf 1020,7 hPa 0,0 l/m 2 min 0 min 887 W/m 18,8 km/h (3 Bft) 91,49 %
06.07.2016 13:08 20,7 C 28,9 C 23,9 C 60 % 0 lf 1020,7 hPa 0,0 l/m 2 min 0 min 876 W/m 16,7 km/h (3 Bft) 93,62 %
06.07.2016 13:10 20,8 C 28,3 C 23,9 C 61 % 0 lf 1020,7 hPa 0,0 l/m 2 min 0 min 874 W/m 14,6 km/h (3 Bft) 91,49 %
06.07.2016 13:12 20,8 C 27,2 C 23,3 C 60 % 0 lf 1020,7 hPa 0,0 l/m 2 min 0 min 467 W/m 14,6 km/h (3 Bft) 89,36 %
06.07.2016 13:14 20,8 C 26,7 C 22,8 C 60 % 0 lf 1020,8 hPa 0,0 l/m 0 min 0 min 316 W/m 23,0 km/h (4 Bft) 89,36 %
06.07.2016 13:16 20,8 C 27,2 C 22,8 C 59 % 0 lf 1020,8 hPa 0,0 l/m 0 min 0 min 380 W/m 23,0 km/h (4 Bft) 86,96 %
06.07.2016 13:18 20,7 C 25,6 C 22,2 C 58 % 0 lf 1020,7 hPa 0,0 l/m 2 min 0 min 649 W/m 18,8 km/h (3 Bft) 91,49 %
06.07.2016 13:20 20,7 C 24,4 C 21,7 C 58 % 0 lf 1020,7 hPa 0,0 l/m 0 min 0 min 323 W/m 20,9 km/h (4 Bft) 89,36 %
06.07.2016 13:22 20,7 C 23,9 C 21,1 C 60 % 0 lf 1020,8 hPa 0,0 l/m 0 min 0 min 271 W/m 8,4 km/h (2 Bft) 89,36 %
06.07.2016 13:24 20,6 C 23,3 C 20,6 C 59 % 0 lf 1020,7 hPa 0,0 l/m 0 min 0 min 271 W/m 14,6 km/h (3 Bft) 87,23 %
06.07.2016 13:26 20,6 C 24,4 C 21,1 C 60 % 0 lf 1020,7 hPa 0,0 l/m 0 min 0 min 323 W/m 16,7 km/h (3 Bft) 93,62 %
06.07.2016 13:28 20,6 C 26,7 C 21,7 C 61 % 0 lf 1020,7 hPa 0,0 l/m 2 min 0 min 846 W/m 12,6 km/h (3 Bft) 89,13 %
06.07.2016 13:30 20,6 C 27,2 C 21,7 C 59 % 0 lf 1020,7 hPa 0,0 l/m 2 min 0 min 865 W/m 14,6 km/h (3 Bft) 93,62 %
06.07.2016 13:32 20,6 C 27,2 C 21,7 C 59 % 0 lf 1020,6 hPa 0,0 l/m 2 min 0 min 854 W/m 10,5 km/h (2 Bft) 91,49 %
06.07.2016 13:34 20,6 C 27,2 C 22,2 C 60 % 0 lf 1020,6 hPa 0,0 l/m 0 min 0 min 357 W/m 12,6 km/h (3 Bft) 93,62 %
06.07.2016 13:36 20,7 C 26,7 C 22,2 C 60 % 0 lf 1020,7 hPa 0,0 l/m 0 min 0 min 367 W/m 20,9 km/h (4 Bft) 93,62 %
06.07.2016 13:38 20,7 C 26,7 C 22,2 C 58 % 0 lf 1020,6 hPa 0,0 l/m 0 min 0 min 389 W/m 12,6 km/h (3 Bft) 93,48 %
06.07.2016 13:40 20,7 C 26,7 C 22,2 C 60 % 0 lf 1020,7 hPa 0,0 l/m 0 min 0 min 390 W/m 14,6 km/h (3 Bft) 91,49 %
06.07.2016 13:42 20,7 C 27,8 C 22,2 C 58 % 0 lf 1020,7 hPa 0,0 l/m 0 min 0 min 406 W/m 18,8 km/h (3 Bft) 91,49 %
06.07.2016 13:44 20,8 C 27,2 C 22,2 C 59 % 0 lf 1020,7 hPa 0,0 l/m 2 min 0 min 904 W/m 16,7 km/h (3 Bft) 93,62 %
06.07.2016 13:46 20,8 C 26,1 C 22,2 C 59 % 0 lf 1020,6 hPa 0,0 l/m 0 min 0 min 372 W/m 12,6 km/h (3 Bft) 91,49 %
06.07.2016 13:48 20,8 C 25,0 C 21,7 C 60 % 0 lf 1020,7 hPa 0,0 l/m 0 min 0 min 350 W/m 18,8 km/h (3 Bft) 93,62 %
06.07.2016 13:50 20,8 C 23,9 C 21,7 C 59 % 0 lf 1020,6 hPa 0,0 l/m 0 min 0 min 326 W/m 18,8 km/h (3 Bft) 93,48 %
06.07.2016 13:52 20,8 C 25,6 C 21,7 C 59 % 0 lf 1020,6 hPa 0,0 l/m 2 min 0 min 449 W/m 16,7 km/h (3 Bft) 93,62 %
06.07.2016 13:54 20,8 C 27,2 C 22,2 C 59 % 0 lf 1020,6 hPa 0,0 l/m 2 min 0 min 838 W/m 12,6 km/h (3 Bft) 95,74 %
06.07.2016 13:56 20,9 C 28,3 C 22,8 C 62 % 0 lf 1020,6 hPa 0,0 l/m 2 min 0 min 868 W/m 12,6 km/h (3 Bft) 97,87 %
06.07.2016 13:58 21,0 C 28,9 C 23,3 C 60 % 0 lf 1020,6 hPa 0,0 l/m 2 min 0 min 862 W/m 16,7 km/h (3 Bft) 95,74 %
06.07.2016 14:00 21,1 C 27,8 C 23,9 C 59 % 0 lf 1020,6 hPa 0,0 l/m 2 min 0 min 894 W/m 14,6 km/h (3 Bft) 95,74 %
06.07.2016 14:02 21,2 C 29,4 C 23,9 C 61 % 0 lf 1020,6 hPa 0,0 l/m 2 min 0 min 948 W/m 25,1 km/h (4 Bft) 97,83 %
06.07.2016 14:04 21,3 C 31,1 C 24,4 C 61 % 0 lf 1020,6 hPa 0,0 l/m 2 min 0 min 1090 W/m 12,6 km/h (3 Bft) 93,62 %
06.07.2016 14:06 21,5 C 31,7 C 25,6 C 61 % 0 lf 1020,6 hPa 0,0 l/m 2 min 0 min 993 W/m 18,8 km/h (3 Bft) 93,62 %
06.07.2016 14:08 21,6 C 29,4 C 25,0 C 60 % 0 lf 1020,5 hPa 0,0 l/m 2 min 0 min 909 W/m 16,7 km/h (3 Bft) 100,00 %
06.07.2016 14:10 21,7 C 28,9 C 25,6 C 59 % 0 lf 1020,5 hPa 0,0 l/m 0 min 0 min 396 W/m 16,7 km/h (3 Bft) 97,87 %
06.07.2016 14:12 21,8 C 27,8 C 26,1 C 57 % 0 lf 1020,5 hPa 0,0 l/m 2 min 0 min 793 W/m 14,6 km/h (3 Bft) 100,00 %
06.07.2016 14:14 21,9 C 29,4 C 26,1 C 58 % 0 lf 1020,6 hPa 0,0 l/m 2 min 0 min 896 W/m 12,6 km/h (3 Bft) 100,00 %
06.07.2016 14:16 21,9 C 28,3 C 25,6 C 59 % 0 lf 1020,6 hPa 0,0 l/m 2 min 0 min 826 W/m 12,6 km/h (3 Bft) 100,00 %
06.07.2016 14:18 21,8 C 26,1 C 23,3 C 55 % 0 lf 1020,6 hPa 0,0 l/m 0 min 0 min 405 W/m 25,1 km/h (4 Bft) 100,00 %
06.07.2016 14:20 21,7 C 25,0 C 22,2 C 55 % 0 lf 1020,6 hPa 0,0 l/m 0 min 0 min 333 W/m 20,9 km/h (4 Bft) 97,87 %
06.07.2016 14:22 21,6 C 25,6 C 23,3 C 56 % 0 lf 1020,6 hPa 0,0 l/m 0 min 0 min 359 W/m 20,9 km/h (4 Bft) 95,74 %
06.07.2016 14:24 21,5 C 26,7 C 25,0 C 57 % 0 lf 1020,6 hPa 0,0 l/m 2 min 0 min 838 W/m 23,0 km/h (4 Bft) 100,00 %
06.07.2016 14:26 21,4 C 26,1 C 23,3 C 57 % 0 lf 1020,6 hPa 0,0 l/m 2 min 0 min 638 W/m 25,1 km/h (4 Bft) 100,00 %
06.07.2016 14:28 21,3 C 24,4 C 22,2 C 57 % 0 lf 1020,6 hPa 0,0 l/m 0 min 0 min 331 W/m 18,8 km/h (3 Bft) 97,87 %
06.07.2016 14:30 21,2 C 23,9 C 21,7 C 56 % 0 lf 1020,6 hPa 0,0 l/m 0 min 0 min 271 W/m 14,6 km/h (3 Bft) 100,00 %
06.07.2016 14:32 21,2 C 23,9 C 21,7 C 57 % 0 lf 1020,6 hPa 0,0 l/m 0 min 0 min 277 W/m 10,5 km/h (2 Bft) 100,00 %
06.07.2016 14:34 21,1 C 25,6 C 24,4 C 60 % 0 lf 1020,6 hPa 0,0 l/m 2 min 0 min 708 W/m 20,9 km/h (4 Bft) 100,00 %
06.07.2016 14:36 21,1 C 27,2 C 26,1 C 59 % 0 lf 1020,6 hPa 0,0 l/m 2 min 0 min 919 W/m 18,8 km/h (3 Bft) 100,00 %
06.07.2016 14:38 21,1 C 28,3 C 27,8 C 58 % 0 lf 1020,5 hPa 0,0 l/m 2 min 0 min 996 W/m 16,7 km/h (3 Bft) 100,00 %
06.07.2016 14:40 21,2 C 28,3 C 28,3 C 60 % 0 lf 1020,5 hPa 0,0 l/m 2 min 0 min 983 W/m 14,6 km/h (3 Bft) 97,87 %
06.07.2016 14:42 21,3 C 29,4 C 30,0 C 61 % 0 lf 1020,5 hPa 0,0 l/m 2 min 0 min 1009 W/m 20,9 km/h (4 Bft) 95,74 %
06.07.2016 14:44 21,4 C 30,6 C 30,6 C 58 % 0 lf 1020,5 hPa 0,0 l/m 2 min 0 min 903 W/m 16,7 km/h (3 Bft) 100,00 %
06.07.2016 14:46 21,4 C 28,3 C 27,2 C 57 % 0 lf 1020,6 hPa 0,0 l/m 2 min 0 min 1023 W/m 23,0 km/h (4 Bft) 100,00 %
06.07.2016 14:48 21,4 C 26,1 C 24,4 C 56 % 0 lf 1020,6 hPa 0,0 l/m 2 min 0 min 720 W/m 18,8 km/h (3 Bft) 100,00 %
06.07.2016 14:50 21,3 C 25,6 C 23,3 C 56 % 0 lf 1020,6 hPa 0,0 l/m 0 min 0 min 361 W/m 14,6 km/h (3 Bft) 100,00 %
06.07.2016 14:52 21,2 C 25,0 C 22,8 C 56 % 0 lf 1020,6 hPa 0,0 l/m 0 min 0 min 363 W/m 14,6 km/h (3 Bft) 100,00 %
06.07.2016 14:54 21,2 C 26,1 C 24,4 C 57 % 0 lf 1020,6 hPa 0,0 l/m 0 min 0 min 373 W/m 16,7 km/h (3 Bft) 100,00 %
06.07.2016 14:56 21,1 C 26,7 C 25,0 C 57 % 0 lf 1020,6 hPa 0,0 l/m 2 min 0 min 578 W/m 12,6 km/h (3 Bft) 100,00 %
06.07.2016 14:58 21,1 C 25,0 C 23,9 C 58 % 0 lf 1020,6 hPa 0,0 l/m 2 min 0 min 462 W/m 14,6 km/h (3 Bft) 100,00 %
06.07.2016 15:00 21,1 C 24,4 C 23,3 C 58 % 0 lf 1020,6 hPa 0,0 l/m 0 min 0 min 246 W/m 16,7 km/h (3 Bft) 95,65 %
06.07.2016 15:02 21,1 C 26,1 C 25,6 C 60 % 0 lf 1020,6 hPa 0,0 l/m 0 min 0 min 239 W/m 12,6 km/h (3 Bft) 97,87 %
06.07.2016 15:04 21,1 C 27,8 C 26,7 C 60 % 0 lf 1020,6 hPa 0,0 l/m 2 min 0 min 698 W/m 10,5 km/h (2 Bft) 100,00 %
06.07.2016 15:06 21,1 C 28,9 C 28,9 C 59 % 0 lf 1020,5 hPa 0,0 l/m 2 min 0 min 892 W/m 8,4 km/h (2 Bft) 97,87 %
06.07.2016 15:08 21,2 C 30,6 C 30,0 C 62 % 0 lf 1020,6 hPa 0,0 l/m 2 min 0 min 945 W/m 12,6 km/h (3 Bft) 97,87 %
06.07.2016 15:10 21,3 C 28,9 C 28,9 C 58 % 0 lf 1020,6 hPa 0,0 l/m 2 min 0 min 976 W/m 18,8 km/h (3 Bft) 100,00 %
06.07.2016 15:12 21,4 C 27,2 C 26,7 C 58 % 0 lf 1020,6 hPa 0,0 l/m 2 min 0 min 928 W/m 14,6 km/h (3 Bft) 97,83 %
06.07.2016 15:14 21,4 C 28,3 C 27,2 C 59 % 0 lf 1020,6 hPa 0,0 l/m 0 min 0 min 202 W/m 10,5 km/h (2 Bft) 100,00 %
06.07.2016 15:16 21,5 C 29,4 C 29,4 C 59 % 0 lf 1020,6 hPa 0,0 l/m 2 min 0 min 780 W/m 10,5 km/h (2 Bft) 100,00 %
06.07.2016 15:18 21,6 C 30,0 C 31,7 C 58 % 0 lf 1020,5 hPa 0,0 l/m 2 min 0 min 953 W/m 10,5 km/h (2 Bft) 97,87 %
06.07.2016 15:20 21,7 C 30,6 C 32,2 C 59 % 0 lf 1020,5 hPa 0,0 l/m 2 min 0 min 974 W/m 18,8 km/h (3 Bft) 97,87 %
06.07.2016 15:22 21,9 C 31,1 C 32,8 C 59 % 0 lf 1020,6 hPa 0,0 l/m 2 min 0 min 959 W/m 23,0 km/h (4 Bft) 97,87 %
06.07.2016 15:24 22,0 C 31,1 C 32,2 C 56 % 0 lf 1020,5 hPa 0,0 l/m 2 min 0 min 962 W/m 20,9 km/h (4 Bft) 97,83 %
06.07.2016 15:26 22,1 C 29,4 C 29,4 C 53 % 0 lf 1020,6 hPa 0,0 l/m 2 min 0 min 904 W/m 18,8 km/h (3 Bft) 97,87 %
06.07.2016 15:28 22,1 C 27,8 C 27,2 C 54 % 0 lf 1020,6 hPa 0,0 l/m 2 min 0 min 904 W/m 12,6 km/h (3 Bft) 97,87 %
06.07.2016 15:30 22,1 C 26,7 C 26,7 C 55 % 0 lf 1020,6 hPa 0,0 l/m 0 min 0 min 385 W/m 18,8 km/h (3 Bft) 95,74 %
06.07.2016 15:32 22,1 C 25,6 C 25,0 C 55 % 0 lf 1020,5 hPa 0,0 l/m 0 min 0 min 321 W/m 18,8 km/h (3 Bft) 93,62 %
06.07.2016 15:34 22,1 C 25,6 C 24,4 C 57 % 0 lf 1020,5 hPa 0,0 l/m 0 min 0 min 313 W/m 12,6 km/h (3 Bft) 93,62 %
06.07.2016 15:36 22,0 C 25,0 C 23,9 C 56 % 0 lf 1020,5 hPa 0,0 l/m 0 min 0 min 372 W/m 18,8 km/h (3 Bft) 97,83 %
06.07.2016 15:38 21,9 C 25,0 C 22,8 C 56 % 0 lf 1020,4 hPa 0,0 l/m 0 min 0 min 304 W/m 16,7 km/h (3 Bft) 97,87 %
06.07.2016 15:40 21,8 C 24,4 C 22,8 C 55 % 0 lf 1020,5 hPa 0,0 l/m 0 min 0 min 294 W/m 14,6 km/h (3 Bft) 95,74 %
06.07.2016 15:42 21,7 C 24,4 C 22,2 C 56 % 0 lf 1020,4 hPa 0,0 l/m 0 min 0 min 284 W/m 16,7 km/h (3 Bft) 89,36 %
06.07.2016 15:44 21,7 C 25,0 C 23,3 C 56 % 0 lf 1020,5 hPa 0,0 l/m 0 min 0 min 315 W/m 18,8 km/h (3 Bft) 93,62 %
06.07.2016 15:46 21,6 C 24,4 C 23,3 C 56 % 0 lf 1020,5 hPa 0,0 l/m 0 min 0 min 365 W/m 14,6 km/h (3 Bft) 93,62 %
06.07.2016 15:48 21,6 C 25,0 C 23,9 C 58 % 0 lf 1020,5 hPa 0,0 l/m 2 min 0 min 413 W/m 10,5 km/h (2 Bft) 93,48 %
06.07.2016 15:50 21,6 C 25,6 C 24,4 C 58 % 0 lf 1020,5 hPa 0,0 l/m 2 min 0 min 413 W/m 14,6 km/h (3 Bft) 91,49 %
06.07.2016 15:52 21,5 C 24,4 C 23,9 C 57 % 0 lf 1020,6 hPa 0,0 l/m 0 min 0 min 299 W/m 14,6 km/h (3 Bft) 91,49 %
06.07.2016 15:54 21,4 C 23,9 C 23,3 C 56 % 0 lf 1020,6 hPa 0,0 l/m 0 min 0 min 266 W/m 10,5 km/h (2 Bft) 93,62 %
06.07.2016 15:56 21,4 C 25,6 C 25,0 C 57 % 0 lf 1020,5 hPa 0,0 l/m 2 min 0 min 434 W/m 10,5 km/h (2 Bft) 93,62 %
06.07.2016 15:58 21,4 C 27,2 C 27,2 C 56 % 0 lf 1020,6 hPa 0,0 l/m 2 min 0 min 862 W/m 20,9 km/h (4 Bft) 93,62 %
06.07.2016 16:00 21,4 C 28,3 C 28,3 C 55 % 0 lf 1020,5 hPa 0,0 l/m 2 min 0 min 866 W/m 20,9 km/h (4 Bft) 93,48 %
06.07.2016 16:02 21,5 C 28,9 C 28,3 C 56 % 0 lf 1020,5 hPa 0,0 l/m 2 min 0 min 817 W/m 14,6 km/h (3 Bft) 93,62 %
06.07.2016 16:04 21,5 C 28,9 C 28,9 C 56 % 0 lf 1020,5 hPa 0,0 l/m 2 min 0 min 788 W/m 10,5 km/h (2 Bft) 91,49 %
06.07.2016 16:06 21,6 C 28,9 C 29,4 C 56 % 0 lf 1020,6 hPa 0,0 l/m 2 min 0 min 794 W/m 18,8 km/h (3 Bft) 95,74 %
06.07.2016 16:08 21,7 C 28,9 C 30,0 C 58 % 0 lf 1020,6 hPa 0,0 l/m 2 min 0 min 827 W/m 16,7 km/h (3 Bft) 91,49 %
06.07.2016 16:10 21,8 C 28,3 C 28,3 C 55 % 0 lf 1020,5 hPa 0,0 l/m 2 min 0 min 828 W/m 10,5 km/h (2 Bft) 95,65 %
06.07.2016 16:12 21,8 C 26,7 C 26,1 C 55 % 0 lf 1020,5 hPa 0,0 l/m 2 min 0 min 477 W/m 14,6 km/h (3 Bft) 93,62 %
06.07.2016 16:14 21,8 C 25,0 C 24,4 C 54 % 0 lf 1020,4 hPa 0,0 l/m 0 min 0 min 246 W/m 12,6 km/h (3 Bft) 93,62 %
06.07.2016 16:16 21,8 C 24,4 C 25,0 C 55 % 0 lf 1020,5 hPa 0,0 l/m 0 min 0 min 337 W/m 20,9 km/h (4 Bft) 95,74 %
06.07.2016 16:18 21,8 C 24,4 C 24,4 C 57 % 0 lf 1020,4 hPa 0,0 l/m 0 min 0 min 312 W/m 10,5 km/h (2 Bft) 91,49 %
06.07.2016 16:20 21,8 C 23,9 C 23,9 C 55 % 0 lf 1020,5 hPa 0,0 l/m 0 min 0 min 290 W/m 10,5 km/h (2 Bft) 93,62 %
06.07.2016 16:22 21,8 C 23,3 C 23,3 C 57 % 0 lf 1020,4 hPa 0,0 l/m 0 min 0 min 301 W/m 16,7 km/h (3 Bft) 93,48 %
06.07.2016 16:24 21,7 C 23,3 C 22,8 C 56 % 0 lf 1020,5 hPa 0,0 l/m 0 min 0 min 291 W/m 20,9 km/h (4 Bft) 95,74 %
06.07.2016 16:26 21,7 C 23,3 C 22,8 C 56 % 0 lf 1020,5 hPa 0,0 l/m 0 min 0 min 296 W/m 14,6 km/h (3 Bft) 95,74 %
06.07.2016 16:28 21,7 C 23,9 C 22,8 C 58 % 0 lf 1020,5 hPa 0,0 l/m 0 min 0 min 315 W/m 14,6 km/h (3 Bft) 95,74 %
06.07.2016 16:30 21,7 C 24,4 C 23,9 C 56 % 0 lf 1020,5 hPa 0,0 l/m 2 min 0 min 367 W/m 20,9 km/h (4 Bft) 95,74 %
06.07.2016 16:32 21,7 C 26,7 C 27,2 C 57 % 0 lf 1020,5 hPa 0,0 l/m 2 min 0 min 589 W/m 16,7 km/h (3 Bft) 97,87 %
06.07.2016 16:34 21,7 C 27,8 C 28,3 C 56 % 0 lf 1020,5 hPa 0,0 l/m 2 min 0 min 934 W/m 18,8 km/h (3 Bft) 93,48 %
06.07.2016 16:36 21,8 C 26,7 C 27,2 C 56 % 0 lf 1020,5 hPa 0,0 l/m 2 min 0 min 566 W/m 16,7 km/h (3 Bft) 95,74 %
06.07.2016 16:38 21,8 C 25,6 C 25,6 C 55 % 0 lf 1020,5 hPa 0,0 l/m 0 min 0 min 314 W/m 12,6 km/h (3 Bft) 95,74 %
06.07.2016 16:40 21,8 C 24,4 C 24,4 C 55 % 0 lf 1020,4 hPa 0,0 l/m 0 min 0 min 307 W/m 10,5 km/h (2 Bft) 93,62 %
06.07.2016 16:42 21,8 C 24,4 C 24,4 C 54 % 0 lf 1020,4 hPa 0,0 l/m 2 min 0 min 359 W/m 18,8 km/h (3 Bft) 95,74 %
06.07.2016 16:44 21,7 C 25,0 C 24,4 C 54 % 0 lf 1020,4 hPa 0,0 l/m 2 min 0 min 381 W/m 20,9 km/h (4 Bft) 97,87 %
06.07.2016 16:46 21,7 C 25,0 C 25,6 C 55 % 0 lf 1020,4 hPa 0,0 l/m 2 min 0 min 431 W/m 20,9 km/h (4 Bft) 95,65 %
06.07.2016 16:48 21,7 C 25,0 C 25,6 C 54 % 0 lf 1020,4 hPa 0,0 l/m 2 min 0 min 436 W/m 16,7 km/h (3 Bft) 95,74 %
06.07.2016 16:50 21,7 C 26,7 C 27,8 C 56 % 0 lf 1020,4 hPa 0,0 l/m 2 min 0 min 578 W/m 20,9 km/h (4 Bft) 97,87 %
06.07.2016 16:52 21,8 C 26,7 C 28,3 C 56 % 0 lf 1020,4 hPa 0,0 l/m 2 min 0 min 756 W/m 23,0 km/h (4 Bft) 97,87 %
06.07.2016 16:54 21,8 C 25,0 C 25,6 C 54 % 0 lf 1020,4 hPa 0,0 l/m 2 min 0 min 383 W/m 20,9 km/h (4 Bft) 93,62 %
06.07.2016 16:56 21,8 C 24,4 C 24,4 C 56 % 0 lf 1020,4 hPa 0,0 l/m 0 min 0 min 233 W/m 18,8 km/h (3 Bft) 97,87 %
06.07.2016 16:58 21,8 C 23,9 C 23,3 C 54 % 0 lf 1020,3 hPa 0,0 l/m 0 min 0 min 261 W/m 12,6 km/h (3 Bft) 93,48 %
06.07.2016 17:00 21,7 C 25,0 C 24,4 C 56 % 0 lf 1020,3 hPa 0,0 l/m 0 min 0 min 267 W/m 8,4 km/h (2 Bft) 95,74 %
06.07.2016 17:02 21,7 C 26,1 C 26,7 C 56 % 0 lf 1020,3 hPa 0,0 l/m 2 min 0 min 465 W/m 14,6 km/h (3 Bft) 97,87 %
06.07.2016 17:04 21,8 C 26,7 C 27,2 C 55 % 0 lf 1020,3 hPa 0,0 l/m 2 min 0 min 751 W/m 18,8 km/h (3 Bft) 95,74 %
06.07.2016 17:06 21,8 C 27,2 C 27,2 C 55 % 0 lf 1020,3 hPa 0,0 l/m 2 min 0 min 716 W/m 14,6 km/h (3 Bft) 97,87 %
06.07.2016 17:08 21,9 C 27,8 C 28,3 C 57 % 0 lf 1020,1 hPa 0,0 l/m 2 min 0 min 719 W/m 10,5 km/h (2 Bft) 97,87 %
06.07.2016 17:10 21,9 C 28,3 C 27,8 C 57 % 0 lf 1020,0 hPa 0,0 l/m 2 min 0 min 682 W/m 12,6 km/h (3 Bft) 97,83 %
06.07.2016 17:12 22,1 C 27,8 C 26,7 C 55 % 0 lf 1020,1 hPa 0,0 l/m 2 min 0 min 693 W/m 18,8 km/h (3 Bft) 97,87 %
06.07.2016 17:14 22,1 C 26,1 C 24,4 C 54 % 0 lf 1020,1 hPa 0,0 l/m 2 min 0 min 652 W/m 18,8 km/h (3 Bft) 93,62 %
06.07.2016 17:16 22,1 C 26,1 C 23,9 C 54 % 0 lf 1020,1 hPa 0,0 l/m 2 min 0 min 575 W/m 18,8 km/h (3 Bft) 93,62 %
06.07.2016 17:18 22,1 C 25,0 C 22,8 C 55 % 0 lf 1020,1 hPa 0,0 l/m 2 min 0 min 334 W/m 18,8 km/h (3 Bft) 97,87 %
06.07.2016 17:20 22,0 C 23,9 C 22,2 C 53 % 0 lf 1020,1 hPa 0,0 l/m 0 min 0 min 291 W/m 20,9 km/h (4 Bft) 97,87 %
06.07.2016 17:22 21,9 C 23,9 C 22,2 C 53 % 0 lf 1020,1 hPa 0,0 l/m 0 min 0 min 251 W/m 12,6 km/h (3 Bft) 97,83 %
06.07.2016 17:24 21,9 C 23,9 C 22,2 C 54 % 0 lf 1020,1 hPa 0,0 l/m 0 min 0 min 253 W/m 14,6 km/h (3 Bft) 97,87 %
06.07.2016 17:26 21,9 C 23,3 C 21,7 C 54 % 0 lf 1020,1 hPa 0,0 l/m 0 min 0 min 260 W/m 14,6 km/h (3 Bft) 93,62 %
06.07.2016 17:28 21,8 C 24,4 C 22,8 C 56 % 0 lf 1020,0 hPa 0,0 l/m 2 min 0 min 338 W/m 12,6 km/h (3 Bft) 97,87 %
06.07.2016 17:30 21,8 C 24,4 C 22,8 C 57 % 0 lf 1020,1 hPa 0,0 l/m 2 min 0 min 329 W/m 12,6 km/h (3 Bft) 95,74 %
06.07.2016 17:32 21,8 C 23,9 C 21,7 C 55 % 0 lf 1020,1 hPa 0,0 l/m 2 min 0 min 312 W/m 18,8 km/h (3 Bft) 95,74 %
06.07.2016 17:34 21,8 C 23,9 C 22,2 C 56 % 0 lf 1020,1 hPa 0,0 l/m 2 min 0 min 322 W/m 16,7 km/h (3 Bft) 95,65 %
06.07.2016 17:36 21,7 C 24,4 C 22,2 C 55 % 0 lf 1020,1 hPa 0,0 l/m 2 min 0 min 334 W/m 18,8 km/h (3 Bft) 97,87 %
06.07.2016 17:38 21,7 C 24,4 C 22,2 C 55 % 0 lf 1020,1 hPa 0,0 l/m 2 min 0 min 525 W/m 20,9 km/h (4 Bft) 97,87 %
06.07.2016 17:40 21,7 C 24,4 C 22,8 C 55 % 0 lf 1020,1 hPa 0,0 l/m 2 min 0 min 313 W/m 18,8 km/h (3 Bft) 97,87 %
06.07.2016 17:42 21,7 C 23,9 C 22,2 C 56 % 0 lf 1020,3 hPa 0,0 l/m 2 min 0 min 309 W/m 12,6 km/h (3 Bft) 95,74 %
06.07.2016 17:44 21,7 C 23,9 C 22,2 C 55 % 0 lf 1020,2 hPa 0,0 l/m 2 min 0 min 317 W/m 23,0 km/h (4 Bft) 97,83 %
06.07.2016 17:46 21,6 C 23,9 C 22,2 C 56 % 0 lf 1020,1 hPa 0,0 l/m 2 min 0 min 481 W/m 12,6 km/h (3 Bft) 93,62 %
06.07.2016 17:48 21,7 C 23,9 C 22,2 C 57 % 0 lf 1020,0 hPa 0,0 l/m 2 min 0 min 345 W/m 23,0 km/h (4 Bft) 97,87 %
06.07.2016 17:50 21,6 C 23,9 C 22,2 C 57 % 0 lf 1020,0 hPa 0,0 l/m 2 min 0 min 293 W/m 18,8 km/h (3 Bft) 93,62 %
06.07.2016 17:52 21,6 C 23,3 C 21,7 C 57 % 0 lf 1020,0 hPa 0,0 l/m 2 min 0 min 419 W/m 16,7 km/h (3 Bft) 97,87 %
06.07.2016 17:54 21,6 C 23,3 C 21,1 C 58 % 0 lf 1020,0 hPa 0,0 l/m 2 min 0 min 273 W/m 20,9 km/h (4 Bft) 97,87 %
06.07.2016 17:56 21,6 C 23,3 C 21,1 C 58 % 0 lf 1020,0 hPa 0,0 l/m 2 min 0 min 268 W/m 18,8 km/h (3 Bft) 95,65 %
06.07.2016 17:58 21,5 C 23,3 C 20,6 C 58 % 0 lf 1019,9 hPa 0,0 l/m 2 min 0 min 440 W/m 25,1 km/h (4 Bft) 97,87 %
06.07.2016 18:00 21,5 C 23,3 C 21,1 C 58 % 0 lf 1020,0 hPa 0,0 l/m 2 min 0 min 585 W/m 12,6 km/h (3 Bft) 100,00 %
06.07.2016 18:02 21,4 C 23,3 C 21,1 C 59 % 0 lf 1020,1 hPa 0,0 l/m 2 min 0 min 554 W/m 16,7 km/h (3 Bft) 95,74 %
06.07.2016 18:04 21,4 C 22,8 C 20,6 C 58 % 0 lf 1020,1 hPa 0,0 l/m 0 min 0 min 211 W/m 18,8 km/h (3 Bft) 95,74 %
06.07.2016 18:06 21,4 C 22,8 C 20,6 C 58 % 0 lf 1020,1 hPa 0,0 l/m 0 min 0 min 211 W/m 10,5 km/h (2 Bft) 100,00 %
06.07.2016 18:08 21,3 C 23,3 C 20,6 C 59 % 0 lf 1020,0 hPa 0,0 l/m 2 min 0 min 473 W/m 14,6 km/h (3 Bft) 95,65 %
06.07.2016 18:10 21,3 C 22,8 C 20,6 C 59 % 0 lf 1020,0 hPa 0,0 l/m 2 min 0 min 423 W/m 18,8 km/h (3 Bft) 95,74 %
06.07.2016 18:12 21,2 C 22,8 C 20,0 C 59 % 0 lf 1020,0 hPa 0,0 l/m 2 min 0 min 402 W/m 16,7 km/h (3 Bft) 97,87 %
06.07.2016 18:14 21,2 C 22,2 C 20,0 C 59 % 0 lf 1020,0 hPa 0,0 l/m 2 min 0 min 290 W/m 18,8 km/h (3 Bft) 100,00 %
06.07.2016 18:16 21,2 C 22,2 C 20,0 C 58 % 0 lf 1020,0 hPa 0,0 l/m 0 min 0 min 188 W/m 14,6 km/h (3 Bft) 95,74 %
06.07.2016 18:18 21,1 C 22,2 C 20,0 C 58 % 0 lf 1019,9 hPa 0,0 l/m 0 min 0 min 202 W/m 12,6 km/h (3 Bft) 95,74 %
06.07.2016 18:20 21,0 C 22,2 C 20,6 C 60 % 0 lf 1019,9 hPa 0,0 l/m 0 min 0 min 231 W/m 14,6 km/h (3 Bft) 97,83 %
06.07.2016 18:22 21,0 C 22,2 C 20,6 C 60 % 0 lf 1020,0 hPa 0,0 l/m 0 min 0 min 233 W/m 14,6 km/h (3 Bft) 97,87 %
06.07.2016 18:24 20,9 C 22,2 C 20,0 C 59 % 0 lf 1020,0 hPa 0,0 l/m 2 min 0 min 296 W/m 18,8 km/h (3 Bft) 97,87 %
06.07.2016 18:26 20,9 C 22,2 C 20,6 C 59 % 0 lf 1020,0 hPa 0,0 l/m 2 min 0 min 531 W/m 12,6 km/h (3 Bft) 95,74 %
06.07.2016 18:28 20,8 C 22,2 C 20,0 C 59 % 0 lf 1020,0 hPa 0,0 l/m 2 min 0 min 457 W/m 20,9 km/h (4 Bft) 95,74 %
06.07.2016 18:30 20,8 C 22,2 C 20,0 C 59 % 0 lf 1020,0 hPa 0,0 l/m 2 min 0 min 431 W/m 14,6 km/h (3 Bft) 97,87 %
06.07.2016 18:32 20,7 C 22,2 C 20,0 C 60 % 0 lf 1020,0 hPa 0,0 l/m 2 min 0 min 417 W/m 18,8 km/h (3 Bft) 95,65 %
06.07.2016 18:34 20,7 C 21,7 C 20,0 C 59 % 0 lf 1020,1 hPa 0,0 l/m 2 min 0 min 423 W/m 18,8 km/h (3 Bft) 97,87 %
06.07.2016 18:36 20,7 C 21,7 C 19,4 C 60 % 0 lf 1020,1 hPa 0,0 l/m 0 min 0 min 205 W/m 16,7 km/h (3 Bft) 95,74 %
06.07.2016 18:38 20,6 C 21,1 C 19,4 C 60 % 0 lf 1020,3 hPa 0,0 l/m 0 min 0 min 180 W/m 16,7 km/h (3 Bft) 93,62 %
06.07.2016 18:40 20,6 C 21,1 C 19,4 C 60 % 0 lf 1020,2 hPa 0,0 l/m 0 min 0 min 191 W/m 12,6 km/h (3 Bft) 97,87 %
06.07.2016 18:42 20,6 C 21,7 C 20,0 C 61 % 0 lf 1020,3 hPa 0,0 l/m 0 min 0 min 205 W/m 18,8 km/h (3 Bft) 97,87 %
06.07.2016 18:44 20,5 C 21,7 C 20,0 C 61 % 0 lf 1020,2 hPa 0,0 l/m 2 min 0 min 452 W/m 12,6 km/h (3 Bft) 95,65 %
06.07.2016 18:46 20,5 C 21,7 C 20,0 C 60 % 0 lf 1020,3 hPa 0,0 l/m 2 min 0 min 456 W/m 10,5 km/h (2 Bft) 97,87 %
06.07.2016 18:48 20,4 C 21,7 C 20,0 C 60 % 0 lf 1020,3 hPa 0,0 l/m 2 min 0 min 435 W/m 14,6 km/h (3 Bft) 93,62 %
06.07.2016 18:50 20,4 C 21,7 C 20,0 C 61 % 0 lf 1020,2 hPa 0,0 l/m 2 min 0 min 416 W/m 14,6 km/h (3 Bft) 95,74 %
06.07.2016 18:52 20,4 C 21,7 C 19,4 C 60 % 0 lf 1020,3 hPa 0,0 l/m 2 min 0 min 388 W/m 16,7 km/h (3 Bft) 93,62 %
06.07.2016 18:54 20,4 C 21,1 C 19,4 C 60 % 0 lf 1020,3 hPa 0,0 l/m 2 min 0 min 388 W/m 20,9 km/h (4 Bft) 93,62 %
06.07.2016 18:56 20,4 C 21,1 C 19,4 C 61 % 0 lf 1020,3 hPa 0,0 l/m 2 min 0 min 361 W/m 16,7 km/h (3 Bft) 93,48 %
06.07.2016 18:58 20,4 C 21,1 C 19,4 C 62 % 0 lf 1020,2 hPa 0,0 l/m 2 min 0 min 352 W/m 14,6 km/h (3 Bft) 97,87 %
06.07.2016 19:00 20,4 C 21,1 C 18,9 C 61 % 0 lf 1020,1 hPa 0,0 l/m 2 min 0 min 333 W/m 12,6 km/h (3 Bft) 97,87 %
06.07.2016 19:02 20,4 C 21,1 C 18,9 C 61 % 0 lf 1020,3 hPa 0,0 l/m 2 min 0 min 308 W/m 18,8 km/h (3 Bft) 93,62 %
06.07.2016 19:04 20,3 C 21,1 C 18,9 C 61 % 0 lf 1020,2 hPa 0,0 l/m 2 min 0 min 306 W/m 12,6 km/h (3 Bft) 95,74 %
06.07.2016 19:06 20,3 C 21,1 C 18,9 C 61 % 0 lf 1020,3 hPa 0,0 l/m 2 min 0 min 332 W/m 12,6 km/h (3 Bft) 93,48 %
06.07.2016 19:08 20,3 C 21,1 C 19,4 C 61 % 0 lf 1020,3 hPa 0,0 l/m 2 min 0 min 362 W/m 14,6 km/h (3 Bft) 97,87 %
06.07.2016 19:10 20,3 C 21,1 C 19,4 C 60 % 0 lf 1020,4 hPa 0,0 l/m 2 min 0 min 348 W/m 18,8 km/h (3 Bft) 95,74 %
06.07.2016 19:12 20,3 C 21,1 C 18,9 C 60 % 0 lf 1020,3 hPa 0,0 l/m 2 min 0 min 308 W/m 14,6 km/h (3 Bft) 97,87 %
06.07.2016 19:14 20,3 C 21,1 C 18,9 C 60 % 0 lf 1020,4 hPa 0,0 l/m 2 min 0 min 292 W/m 20,9 km/h (4 Bft) 97,87 %
06.07.2016 19:16 20,2 C 20,6 C 18,9 C 60 % 0 lf 1020,4 hPa 0,0 l/m 2 min 0 min 279 W/m 18,8 km/h (3 Bft) 97,87 %
06.07.2016 19:18 20,2 C 20,6 C 18,9 C 60 % 0 lf 1020,4 hPa 0,0 l/m 2 min 0 min 274 W/m 16,7 km/h (3 Bft) 91,30 %
06.07.2016 19:20 20,2 C 20,6 C 18,9 C 61 % 0 lf 1020,4 hPa 0,0 l/m 2 min 0 min 236 W/m 16,7 km/h (3 Bft) 97,87 %
06.07.2016 19:22 20,1 C 20,6 C 18,9 C 61 % 0 lf 1020,4 hPa 0,0 l/m 2 min 0 min 193 W/m 16,7 km/h (3 Bft) 95,74 %
06.07.2016 19:24 20,1 C 20,6 C 18,3 C 61 % 0 lf 1020,4 hPa 0,0 l/m 0 min 0 min 126 W/m 16,7 km/h (3 Bft) 97,87 %
06.07.2016 19:26 20,1 C 20,6 C 18,3 C 61 % 0 lf 1020,4 hPa 0,0 l/m 2 min 0 min 189 W/m 14,6 km/h (3 Bft) 93,62 %
06.07.2016 19:28 20,1 C 20,6 C 18,3 C 61 % 0 lf 1020,4 hPa 0,0 l/m 2 min 0 min 274 W/m 14,6 km/h (3 Bft) 91,49 %
06.07.2016 19:30 20,0 C 20,6 C 18,9 C 62 % 0 lf 1020,5 hPa 0,0 l/m 2 min 0 min 310 W/m 8,4 km/h (2 Bft) 93,48 %
06.07.2016 19:32 20,0 C 20,6 C 18,3 C 62 % 0 lf 1020,5 hPa 0,0 l/m 2 min 0 min 308 W/m 23,0 km/h (4 Bft) 91,49 %
06.07.2016 19:34 19,9 C 20,6 C 18,9 C 61 % 0 lf 1020,5 hPa 0,0 l/m 2 min 0 min 293 W/m 23,0 km/h (4 Bft) 95,74 %
06.07.2016 19:36 19,9 C 20,6 C 18,9 C 62 % 0 lf 1020,5 hPa 0,0 l/m 0 min 0 min 143 W/m 18,8 km/h (3 Bft) 95,74 %
06.07.2016 19:38 19,9 C 20,0 C 18,3 C 61 % 0 lf 1020,5 hPa 0,0 l/m 2 min 0 min 170 W/m 18,8 km/h (3 Bft) 93,62 %
06.07.2016 19:40 19,8 C 20,0 C 18,3 C 61 % 0 lf 1020,5 hPa 0,0 l/m 2 min 0 min 246 W/m 20,9 km/h (4 Bft) 93,62 %
06.07.2016 19:42 19,8 C 20,0 C 18,3 C 62 % 0 lf 1020,5 hPa 0,0 l/m 2 min 0 min 271 W/m 25,1 km/h (4 Bft) 93,48 %
06.07.2016 19:44 19,7 C 20,0 C 18,3 C 61 % 0 lf 1020,5 hPa 0,0 l/m 2 min 0 min 184 W/m 25,1 km/h (4 Bft) 95,74 %
06.07.2016 19:46 19,7 C 20,0 C 18,3 C 62 % 0 lf 1020,4 hPa 0,0 l/m 2 min 0 min 143 W/m 16,7 km/h (3 Bft) 95,74 %
06.07.2016 19:48 19,7 C 20,0 C 18,3 C 62 % 0 lf 1020,5 hPa 0,0 l/m 2 min 0 min 161 W/m 12,6 km/h (3 Bft) 95,74 %
06.07.2016 19:50 19,7 C 20,0 C 18,3 C 63 % 0 lf 1020,4 hPa 0,0 l/m 2 min 0 min 161 W/m 12,6 km/h (3 Bft) 95,74 %
06.07.2016 19:52 19,7 C 19,4 C 18,3 C 62 % 0 lf 1020,4 hPa 0,0 l/m 2 min 0 min 140 W/m 16,7 km/h (3 Bft) 95,74 %
06.07.2016 19:54 19,6 C 19,4 C 18,3 C 62 % 0 lf 1020,5 hPa 0,0 l/m 2 min 0 min 140 W/m 16,7 km/h (3 Bft) 95,65 %
06.07.2016 19:56 19,6 C 19,4 C 17,8 C 63 % 0 lf 1020,5 hPa 0,0 l/m 2 min 0 min 138 W/m 16,7 km/h (3 Bft) 95,74 %
06.07.2016 19:58 19,6 C 19,4 C 17,8 C 63 % 0 lf 1020,5 hPa 0,0 l/m 2 min 0 min 174 W/m 18,8 km/h (3 Bft) 93,62 %
06.07.2016 20:00 19,5 C 19,4 C 17,8 C 63 % 0 lf 1020,5 hPa 0,0 l/m 2 min 0 min 170 W/m 14,6 km/h (3 Bft) 93,62 %
06.07.2016 20:02 19,5 C 19,4 C 17,8 C 63 % 0 lf 1020,5 hPa 0,0 l/m 2 min 0 min 191 W/m 14,6 km/h (3 Bft) 93,62 %
06.07.2016 20:04 19,4 C 19,4 C 17,8 C 63 % 0 lf 1020,5 hPa 0,0 l/m 2 min 0 min 200 W/m 14,6 km/h (3 Bft) 95,74 %
06.07.2016 20:06 19,4 C 19,4 C 17,8 C 63 % 0 lf 1020,4 hPa 0,0 l/m 2 min 0 min 171 W/m 12,6 km/h (3 Bft) 95,65 %
06.07.2016 20:08 19,4 C 19,4 C 17,8 C 64 % 0 lf 1020,5 hPa 0,0 l/m 2 min 0 min 183 W/m 14,6 km/h (3 Bft) 93,62 %
06.07.2016 20:10 19,4 C 19,4 C 17,8 C 63 % 0 lf 1020,5 hPa 0,0 l/m 2 min 0 min 163 W/m 16,7 km/h (3 Bft) 95,74 %
06.07.2016 20:12 19,3 C 19,4 C 17,8 C 63 % 0 lf 1020,5 hPa 0,0 l/m 2 min 0 min 140 W/m 14,6 km/h (3 Bft) 97,87 %
06.07.2016 20:14 19,3 C 19,4 C 17,8 C 63 % 0 lf 1020,5 hPa 0,0 l/m 2 min 0 min 165 W/m 8,4 km/h (2 Bft) 93,62 %
06.07.2016 20:16 19,3 C 19,4 C 17,8 C 63 % 0 lf 1020,4 hPa 0,0 l/m 2 min 0 min 172 W/m 14,6 km/h (3 Bft) 95,65 %
06.07.2016 20:18 19,3 C 19,4 C 17,8 C 63 % 0 lf 1020,4 hPa 0,0 l/m 2 min 0 min 159 W/m 12,6 km/h (3 Bft) 95,74 %
06.07.2016 20:20 19,3 C 19,4 C 17,8 C 64 % 0 lf 1020,4 hPa 0,0 l/m 2 min 0 min 151 W/m 14,6 km/h (3 Bft) 97,87 %
06.07.2016 20:22 19,3 C 19,4 C 17,8 C 64 % 0 lf 1020,5 hPa 0,0 l/m 2 min 0 min 141 W/m 8,4 km/h (2 Bft) 95,74 %
06.07.2016 20:24 19,3 C 19,4 C 17,8 C 64 % 0 lf 1020,5 hPa 0,0 l/m 2 min 0 min 136 W/m 10,5 km/h (2 Bft) 97,87 %
06.07.2016 20:26 19,3 C 19,4 C 17,8 C 64 % 0 lf 1020,5 hPa 0,0 l/m 2 min 0 min 133 W/m 16,7 km/h (3 Bft) 95,74 %
06.07.2016 20:28 19,2 C 19,4 C 17,8 C 64 % 0 lf 1020,5 hPa 0,0 l/m 2 min 0 min 130 W/m 8,4 km/h (2 Bft) 97,83 %
06.07.2016 20:30 19,2 C 19,4 C 17,8 C 64 % 0 lf 1020,5 hPa 0,0 l/m 2 min 0 min 109 W/m 14,6 km/h (3 Bft) 97,87 %
06.07.2016 20:32 19,2 C 18,9 C 17,8 C 64 % 0 lf 1020,6 hPa 0,0 l/m 2 min 0 min 86 W/m 18,8 km/h (3 Bft) 97,87 %
06.07.2016 20:34 19,2 C 18,9 C 17,2 C 64 % 0 lf 1020,5 hPa 0,0 l/m 2 min 0 min 80 W/m 23,0 km/h (4 Bft) 97,87 %
06.07.2016 20:36 19,2 C 18,9 C 17,2 C 63 % 0 lf 1020,5 hPa 0,0 l/m 0 min 0 min 73 W/m 14,6 km/h (3 Bft) 97,87 %
06.07.2016 20:38 19,1 C 18,9 C 17,2 C 63 % 0 lf 1020,6 hPa 0,0 l/m 0 min 0 min 66 W/m 14,6 km/h (3 Bft) 93,62 %
06.07.2016 20:40 19,1 C 18,9 C 16,7 C 63 % 0 lf 1020,6 hPa 0,0 l/m 0 min 0 min 53 W/m 16,7 km/h (3 Bft) 95,65 %
06.07.2016 20:42 19,0 C 18,3 C 16,7 C 63 % 0 lf 1020,6 hPa 0,0 l/m 0 min 0 min 49 W/m 12,6 km/h (3 Bft) 100,00 %
06.07.2016 20:44 18,9 C 18,3 C 16,7 C 63 % 0 lf 1020,7 hPa 0,0 l/m 0 min 0 min 48 W/m 14,6 km/h (3 Bft) 100,00 %
06.07.2016 20:46 18,9 C 18,3 C 16,7 C 63 % 0 lf 1020,7 hPa 0,0 l/m 0 min 0 min 44 W/m 16,7 km/h (3 Bft) 100,00 %
06.07.2016 20:48 18,8 C 17,8 C 16,7 C 64 % 0 lf 1020,7 hPa 0,0 l/m 0 min 0 min 42 W/m 16,7 km/h (3 Bft) 97,87 %
06.07.2016 20:50 18,8 C 17,8 C 16,1 C 64 % 0 lf 1020,6 hPa 0,0 l/m 0 min 0 min 40 W/m 18,8 km/h (3 Bft) 97,87 %
06.07.2016 20:52 18,7 C 17,8 C 16,1 C 64 % 0 lf 1020,7 hPa 0,0 l/m 0 min 0 min 39 W/m 18,8 km/h (3 Bft) 97,87 %
06.07.2016 20:54 18,6 C 17,8 C 16,1 C 64 % 0 lf 1020,6 hPa 0,0 l/m 0 min 0 min 39 W/m 18,8 km/h (3 Bft) 93,62 %
06.07.2016 20:56 18,5 C 17,8 C 16,1 C 64 % 0 lf 1020,7 hPa 0,0 l/m 0 min 0 min 37 W/m 14,6 km/h (3 Bft) 97,83 %
06.07.2016 20:58 18,4 C 17,8 C 16,1 C 64 % 0 lf 1020,8 hPa 0,0 l/m 0 min 0 min 37 W/m 18,8 km/h (3 Bft) 97,87 %
06.07.2016 21:00 18,4 C 17,8 C 16,1 C 64 % 0 lf 1020,8 hPa 0,0 l/m 0 min 0 min 37 W/m 16,7 km/h (3 Bft) 95,74 %
06.07.2016 21:02 18,3 C 17,2 C 16,1 C 64 % 0 lf 1020,8 hPa 0,0 l/m 0 min 0 min 37 W/m 16,7 km/h (3 Bft) 97,87 %
06.07.2016 21:04 18,3 C 17,2 C 16,1 C 65 % 0 lf 1020,8 hPa 0,0 l/m 0 min 0 min 37 W/m 16,7 km/h (3 Bft) 97,87 %
06.07.2016 21:06 18,2 C 17,2 C 16,1 C 65 % 0 lf 1020,8 hPa 0,0 l/m 0 min 0 min 35 W/m 14,6 km/h (3 Bft) 95,74 %
06.07.2016 21:08 18,1 C 17,2 C 15,6 C 65 % 0 lf 1020,8 hPa 0,0 l/m 0 min 0 min 33 W/m 16,7 km/h (3 Bft) 97,83 %
06.07.2016 21:10 18,1 C 17,2 C 15,6 C 65 % 0 lf 1020,8 hPa 0,0 l/m 0 min 0 min 32 W/m 12,6 km/h (3 Bft) 95,74 %
06.07.2016 21:12 18,0 C 17,2 C 15,6 C 65 % 0 lf 1020,9 hPa 0,0 l/m 0 min 0 min 31 W/m 12,6 km/h (3 Bft) 97,87 %
06.07.2016 21:14 18,0 C 17,2 C 15,6 C 66 % 0 lf 1020,9 hPa 0,0 l/m 0 min 0 min 30 W/m 12,6 km/h (3 Bft) 97,87 %
06.07.2016 21:16 17,9 C 17,2 C 15,6 C 66 % 0 lf 1020,9 hPa 0,0 l/m 0 min 0 min 28 W/m 10,5 km/h (2 Bft) 97,87 %
06.07.2016 21:18 17,9 C 17,2 C 15,6 C 66 % 0 lf 1021,0 hPa 0,0 l/m 0 min 0 min 27 W/m 10,5 km/h (2 Bft) 93,62 %
06.07.2016 21:20 17,8 C 16,7 C 15,6 C 67 % 0 lf 1020,9 hPa 0,0 l/m 0 min 0 min 25 W/m 10,5 km/h (2 Bft) 97,83 %
06.07.2016 21:22 17,8 C 16,7 C 15,0 C 67 % 0 lf 1020,9 hPa 0,0 l/m 2 min 0 min 24 W/m 12,6 km/h (3 Bft) 97,87 %
06.07.2016 21:24 17,8 C 16,7 C 15,0 C 67 % 0 lf 1021,0 hPa 0,0 l/m 2 min 0 min 22 W/m 10,5 km/h (2 Bft) 97,87 %
06.07.2016 21:26 17,7 C 16,7 C 15,0 C 67 % 0 lf 1020,9 hPa 0,0 l/m 2 min 0 min 21 W/m 14,6 km/h (3 Bft) 97,87 %
06.07.2016 21:28 17,7 C 16,7 C 15,0 C 67 % 0 lf 1020,9 hPa 0,0 l/m 2 min 0 min 20 W/m 8,4 km/h (2 Bft) 95,74 %
06.07.2016 21:30 17,6 C 16,7 C 15,0 C 67 % 0 lf 1020,9 hPa 0,0 l/m 2 min 0 min 19 W/m 8,4 km/h (2 Bft) 95,65 %
06.07.2016 21:32 17,6 C 16,7 C 15,0 C 68 % 0 lf 1020,9 hPa 0,0 l/m 2 min 0 min 19 W/m 8,4 km/h (2 Bft) 95,74 %
06.07.2016 21:34 17,6 C 16,7 C 15,0 C 68 % 0 lf 1020,8 hPa 0,0 l/m 0 min 0 min 18 W/m 10,5 km/h (2 Bft) 91,49 %
06.07.2016 21:36 17,5 C 16,7 C 15,0 C 68 % 0 lf 1020,9 hPa 0,0 l/m 0 min 0 min 16 W/m 8,4 km/h (2 Bft) 95,74 %
06.07.2016 21:38 17,4 C 16,1 C 15,0 C 68 % 0 lf 1020,8 hPa 0,0 l/m 0 min 0 min 14 W/m 8,4 km/h (2 Bft) 97,87 %
06.07.2016 21:40 17,4 C 16,1 C 15,0 C 68 % 0 lf 1020,8 hPa 0,0 l/m 0 min 0 min 13 W/m 8,4 km/h (2 Bft) 97,87 %
06.07.2016 21:42 17,3 C 16,1 C 15,0 C 68 % 0 lf 1020,8 hPa 0,0 l/m 0 min 0 min 12 W/m 10,5 km/h (2 Bft) 97,83 %
06.07.2016 21:44 17,3 C 16,1 C 15,0 C 68 % 0 lf 1020,8 hPa 0,0 l/m 0 min 0 min 11 W/m 12,6 km/h (3 Bft) 91,49 %
06.07.2016 21:46 17,2 C 16,1 C 15,0 C 69 % 0 lf 1020,8 hPa 0,0 l/m 0 min 0 min 9 W/m 6,3 km/h (2 Bft) 93,62 %
06.07.2016 21:48 17,2 C 16,1 C 14,4 C 69 % 0 lf 1020,8 hPa 0,0 l/m 0 min 0 min 8 W/m 8,4 km/h (2 Bft) 97,87 %
06.07.2016 21:50 17,2 C 16,1 C 14,4 C 69 % 0 lf 1020,8 hPa 0,0 l/m 0 min 0 min 7 W/m 6,3 km/h (2 Bft) 93,62 %
06.07.2016 21:52 17,1 C 15,6 C 14,4 C 69 % 0 lf 1020,8 hPa 0,0 l/m 0 min 0 min 7 W/m 6,3 km/h (2 Bft) 97,87 %
06.07.2016 21:54 17,1 C 15,6 C 13,9 C 69 % 0 lf 1020,8 hPa 0,0 l/m 0 min 0 min 7 W/m 4,2 km/h (1 Bft) 97,83 %
06.07.2016 21:56 17,1 C 15,6 C 13,9 C 69 % 0 lf 1020,9 hPa 0,0 l/m 0 min 0 min 7 W/m 4,2 km/h (1 Bft) 97,87 %
06.07.2016 21:58 17,0 C 15,6 C 13,9 C 69 % 0 lf 1020,9 hPa 0,0 l/m 0 min 0 min 5 W/m 4,2 km/h (1 Bft) 93,62 %
06.07.2016 22:00 17,0 C 15,0 C 13,9 C 70 % 0 lf 1020,9 hPa 0,0 l/m 0 min 0 min 5 W/m 6,3 km/h (2 Bft) 97,87 %
06.07.2016 22:02 16,9 C 15,0 C 13,3 C 70 % 0 lf 1020,9 hPa 0,0 l/m 0 min 0 min 5 W/m 6,3 km/h (2 Bft) 91,49 %
06.07.2016 22:04 16,9 C 15,0 C 13,3 C 70 % 0 lf 1021,0 hPa 0,0 l/m 0 min 0 min 5 W/m 4,2 km/h (1 Bft) 97,87 %
06.07.2016 22:06 16,9 C 15,0 C 13,3 C 70 % 0 lf 1021,0 hPa 0,0 l/m 0 min 0 min 5 W/m 4,2 km/h (1 Bft) 100,00 %
06.07.2016 22:08 16,8 C 15,0 C 13,3 C 70 % 0 lf 1021,0 hPa 0,0 l/m 0 min 0 min 5 W/m 4,2 km/h (1 Bft) 100,00 %
06.07.2016 22:10 16,8 C 15,0 C 13,3 C 70 % 0 lf 1021,0 hPa 0,0 l/m 0 min 0 min 5 W/m 6,3 km/h (2 Bft) 100,00 %
06.07.2016 22:12 16,7 C 15,0 C 13,3 C 70 % 0 lf 1021,0 hPa 0,0 l/m 0 min 0 min 5 W/m 4,2 km/h (1 Bft) 97,87 %
06.07.2016 22:14 16,7 C 14,4 C 12,8 C 71 % 0 lf 1021,0 hPa 0,0 l/m 0 min 0 min 5 W/m 4,2 km/h (1 Bft) 93,62 %
06.07.2016 22:16 16,6 C 14,4 C 12,8 C 71 % 0 lf 1021,0 hPa 0,0 l/m 0 min 0 min 4 W/m 6,3 km/h (2 Bft) 95,74 %
06.07.2016 22:18 16,6 C 14,4 C 12,8 C 71 % 0 lf 1021,0 hPa 0,0 l/m 0 min 0 min 4 W/m 4,2 km/h (1 Bft) 100,00 %
06.07.2016 22:20 16,5 C 14,4 C 12,8 C 71 % 0 lf 1020,9 hPa 0,0 l/m 0 min 0 min 5 W/m 4,2 km/h (1 Bft) 97,87 %
06.07.2016 22:22 16,4 C 14,4 C 12,8 C 71 % 0 lf 1020,9 hPa 0,0 l/m 0 min 0 min 5 W/m 2,1 km/h (1 Bft) 97,87 %
06.07.2016 22:24 16,4 C 14,4 C 12,8 C 71 % 0 lf 1020,9 hPa 0,0 l/m 0 min 0 min 5 W/m 2,1 km/h (1 Bft) 97,87 %
06.07.2016 22:26 16,3 C 13,9 C 12,8 C 71 % 0 lf 1020,8 hPa 0,0 l/m 0 min 0 min 5 W/m 4,2 km/h (1 Bft) 97,87 %
06.07.2016 22:28 16,3 C 13,9 C 12,2 C 72 % 0 lf 1020,9 hPa 0,0 l/m 0 min 0 min 5 W/m 2,1 km/h (1 Bft) 93,62 %
06.07.2016 22:30 16,2 C 13,9 C 12,2 C 72 % 0 lf 1020,9 hPa 0,0 l/m 0 min 0 min 5 W/m 2,1 km/h (1 Bft) 93,48 %
06.07.2016 22:32 16,2 C 13,9 C 12,2 C 72 % 0 lf 1020,9 hPa 0,0 l/m 0 min 0 min 5 W/m 0,0 km/h (0 Bft) 93,62 %
06.07.2016 22:34 16,1 C 13,9 C 12,2 C 72 % 0 lf 1020,9 hPa 0,0 l/m 0 min 0 min 5 W/m 4,2 km/h (1 Bft) 97,87 %
06.07.2016 22:36 16,1 C 13,9 C 12,2 C 73 % 0 lf 1020,9 hPa 0,0 l/m 0 min 0 min 5 W/m 2,1 km/h (1 Bft) 97,87 %
06.07.2016 22:38 16,0 C 13,9 C 12,2 C 73 % 0 lf 1020,9 hPa 0,0 l/m 0 min 0 min 4 W/m 4,2 km/h (1 Bft) 93,62 %
06.07.2016 22:40 16,0 C 13,9 C 12,2 C 73 % 0 lf 1020,9 hPa 0,0 l/m 0 min 0 min 4 W/m 0,0 km/h (0 Bft) 97,87 %
06.07.2016 22:42 15,9 C 13,9 C 12,2 C 73 % 0 lf 1021,0 hPa 0,0 l/m 0 min 0 min 5 W/m 2,1 km/h (1 Bft) 91,30 %
06.07.2016 22:44 15,8 C 13,9 C 12,2 C 74 % 0 lf 1021,0 hPa 0,0 l/m 0 min 0 min 3 W/m 2,1 km/h (1 Bft) 95,74 %
06.07.2016 22:46 15,8 C 13,9 C 12,2 C 74 % 0 lf 1021,0 hPa 0,0 l/m 0 min 0 min 5 W/m 2,1 km/h (1 Bft) 95,74 %
06.07.2016 22:48 15,8 C 13,9 C 12,2 C 74 % 0 lf 1021,0 hPa 0,0 l/m 0 min 0 min 3 W/m 2,1 km/h (1 Bft) 95,74 %
06.07.2016 22:50 15,7 C 13,9 C 12,2 C 74 % 0 lf 1021,1 hPa 0,0 l/m 0 min 0 min 5 W/m 0,0 km/h (0 Bft) 93,62 %
06.07.2016 22:52 15,7 C 13,9 C 12,2 C 74 % 0 lf 1021,1 hPa 0,0 l/m 0 min 0 min 5 W/m 0,0 km/h (0 Bft) 95,65 %
06.07.2016 22:54 15,6 C 13,9 C 11,7 C 74 % 0 lf 1021,1 hPa 0,0 l/m 0 min 0 min 5 W/m 0,0 km/h (0 Bft) 93,62 %
06.07.2016 22:56 15,6 C 13,9 C 11,7 C 74 % 0 lf 1021,1 hPa 0,0 l/m 0 min 0 min 5 W/m 0,0 km/h (0 Bft) 93,62 %
06.07.2016 22:58 15,5 C 13,9 C 11,7 C 75 % 0 lf 1021,1 hPa 0,0 l/m 0 min 0 min 4 W/m 2,1 km/h (1 Bft) 95,74 %
06.07.2016 23:00 15,5 C 13,9 C 11,7 C 75 % 0 lf 1021,1 hPa 0,0 l/m 0 min 0 min 2 W/m 2,1 km/h (1 Bft) 95,74 %
06.07.2016 23:02 15,4 C 13,9 C 11,7 C 75 % 0 lf 1021,1 hPa 0,0 l/m 0 min 0 min 2 W/m 2,1 km/h (1 Bft) 93,62 %
06.07.2016 23:04 15,4 C 13,9 C 11,7 C 76 % 0 lf 1021,1 hPa 0,0 l/m 0 min 0 min 4 W/m 0,0 km/h (0 Bft) 95,65 %
06.07.2016 23:06 15,4 C 13,3 C 11,7 C 76 % 0 lf 1021,1 hPa 0,0 l/m 0 min 0 min 5 W/m 0,0 km/h (0 Bft) 95,74 %
06.07.2016 23:08 15,3 C 13,3 C 11,7 C 76 % 0 lf 1021,1 hPa 0,0 l/m 0 min 0 min 5 W/m 0,0 km/h (0 Bft) 91,49 %
06.07.2016 23:10 15,3 C 13,3 C 11,7 C 77 % 0 lf 1021,1 hPa 0,0 l/m 0 min 0 min 5 W/m 2,1 km/h (1 Bft) 95,74 %
06.07.2016 23:12 15,2 C 12,8 C 11,7 C 77 % 0 lf 1021,2 hPa 0,0 l/m 0 min 0 min 5 W/m 0,0 km/h (0 Bft) 95,74 %
06.07.2016 23:14 15,2 C 12,8 C 11,7 C 77 % 0 lf 1021,2 hPa 0,0 l/m 0 min 0 min 5 W/m 2,1 km/h (1 Bft) 93,62 %
06.07.2016 23:16 15,1 C 12,8 C 11,7 C 77 % 0 lf 1021,1 hPa 0,0 l/m 0 min 0 min 5 W/m 0,0 km/h (0 Bft) 93,48 %
06.07.2016 23:18 15,1 C 12,8 C 11,7 C 77 % 0 lf 1021,2 hPa 0,0 l/m 0 min 0 min 5 W/m 0,0 km/h (0 Bft) 95,74 %
06.07.2016 23:20 15,0 C 12,8 C 11,7 C 78 % 0 lf 1021,2 hPa 0,0 l/m 0 min 0 min 5 W/m 0,0 km/h (0 Bft) 95,74 %
06.07.2016 23:22 14,9 C 12,8 C 11,7 C 78 % 0 lf 1021,3 hPa 0,0 l/m 0 min 0 min 5 W/m 0,0 km/h (0 Bft) 91,49 %
06.07.2016 23:24 14,9 C 12,8 C 11,7 C 78 % 0 lf 1021,3 hPa 0,0 l/m 0 min 0 min 5 W/m 0,0 km/h (0 Bft) 93,62 %
06.07.2016 23:26 14,8 C 12,8 C 11,7 C 78 % 0 lf 1021,4 hPa 0,0 l/m 0 min 0 min 5 W/m 0,0 km/h (0 Bft) 82,98 %
06.07.2016 23:28 14,8 C 12,8 C 11,7 C 78 % 0 lf 1021,4 hPa 0,0 l/m 0 min 0 min 5 W/m 0,0 km/h (0 Bft) 95,65 %
06.07.2016 23:30 14,7 C 12,8 C 11,7 C 78 % 0 lf 1021,4 hPa 0,0 l/m 0 min 0 min 5 W/m 0,0 km/h (0 Bft) 100,00 %
06.07.2016 23:32 14,7 C 12,8 C 11,7 C 78 % 0 lf 1021,4 hPa 0,0 l/m 0 min 0 min 5 W/m 0,0 km/h (0 Bft) 95,74 %
06.07.2016 23:34 14,7 C 12,8 C 11,7 C 78 % 0 lf 1021,4 hPa 0,0 l/m 0 min 0 min 5 W/m 0,0 km/h (0 Bft) 95,74 %
06.07.2016 23:36 14,6 C 12,8 C 11,7 C 78 % 0 lf 1021,4 hPa 0,0 l/m 0 min 0 min 5 W/m 0,0 km/h (0 Bft) 93,62 %
06.07.2016 23:38 14,6 C 12,8 C 11,7 C 79 % 0 lf 1021,4 hPa 0,0 l/m 0 min 0 min 5 W/m 0,0 km/h (0 Bft) 97,87 %
06.07.2016 23:40 14,5 C 12,2 C 11,7 C 79 % 0 lf 1021,3 hPa 0,0 l/m 0 min 0 min 5 W/m 0,0 km/h (0 Bft) 97,83 %
06.07.2016 23:42 14,4 C 12,2 C 11,7 C 79 % 0 lf 1021,4 hPa 0,0 l/m 0 min 0 min 5 W/m 0,0 km/h (0 Bft) 93,62 %
06.07.2016 23:44 14,4 C 12,2 C 11,7 C 79 % 0 lf 1021,4 hPa 0,0 l/m 0 min 0 min 5 W/m 0,0 km/h (0 Bft) 93,62 %
06.07.2016 23:46 14,4 C 12,8 C 11,1 C 79 % 0 lf 1021,4 hPa 0,0 l/m 0 min 0 min 5 W/m 0,0 km/h (0 Bft) 95,74 %
06.07.2016 23:48 14,3 C 12,2 C 11,1 C 79 % 0 lf 1021,4 hPa 0,0 l/m 0 min 0 min 5 W/m 0,0 km/h (0 Bft) 93,62 %
06.07.2016 23:50 14,3 C 12,2 C 11,1 C 79 % 0 lf 1021,4 hPa 0,0 l/m 0 min 0 min 5 W/m 0,0 km/h (0 Bft) 95,74 %
06.07.2016 23:52 14,2 C 12,2 C 11,1 C 80 % 0 lf 1021,5 hPa 0,0 l/m 0 min 0 min 5 W/m 0,0 km/h (0 Bft) 95,65 %
06.07.2016 23:54 14,2 C 12,2 C 11,1 C 80 % 0 lf 1021,5 hPa 0,0 l/m 0 min 0 min 5 W/m 0,0 km/h (0 Bft) 95,74 %
06.07.2016 23:56 14,2 C 12,2 C 11,1 C 80 % 0 lf 1021,5 hPa 0,0 l/m 0 min 0 min 5 W/m 0,0 km/h (0 Bft) 95,74 %
06.07.2016 23:58 14,2 C 12,2 C 11,1 C 80 % 0 lf 1021,5 hPa 0,0 l/m 0 min 0 min 5 W/m 0,0 km/h (0 Bft) 97,87 %
_ Min-Zeit 05:04 03:26 04:22 15:26 00:00 00:00 - - - - 02:22 23:26
Minimum _ 10,5 C 9,4 C 8,3 C 53 % 0 lf 1018,1 hPa - - - - 0,0 km/h (0 Bft) 82,98 %
_ Max-Zeit 15:30 14:06 15:22 06:24 05:06 23:52 00:00 07:32 05:30 12:44 11:22 00:08
Maximum _ 22,2 C 31,7 C 32,8 C 96 % 12 lf 1021,5 hPa 0,0 l/m 2 min 2 min 1100 W/m 27,2 km/h
N-NW (4 Bft)
100,00 %
Durchschnitt _ 16,5 C 18,6 C 16,6 C 75 % 1 lf 1019,9 hPa #0,0 l/m #10:24 h #8 min. 311 W/m 10,5 km/h (2 Bft) 96,12 %
© 2016 W. Hausmann